Time,TemperatureF,DewpointF,PressureIn,WindDirection,WindDirectionDegrees,WindSpeedMPH,WindSpeedGustMPH,Humidity,HourlyPrecipIn,Conditions,Clouds,dailyrainin,SoftwareType,DateUTC
2013-02-12 00:00:00,33.1,27.0,29.51,WNW,282,5.0,6.0,78,0.00,,,0.22,Wunderground v.1.15,2013-02-12 05:00:00,
2013-02-12 00:01:00,33.1,27.0,29.51,East,79,3.0,6.0,78,0.00,,,0.22,Wunderground v.1.15,2013-02-12 05:01:00,
2013-02-12 00:05:00,33.1,26.7,29.51,NE,34,2.0,9.0,77,0.00,,,0.22,Wunderground v.1.15,2013-02-12 05:05:00,
2013-02-12 00:06:00,33.1,26.7,29.51,ENE,58,3.0,9.0,77,0.00,,,0.22,Wunderground v.1.15,2013-02-12 05:06:00,
2013-02-12 00:08:00,33.1,26.7,29.51,NNE,24,3.0,9.0,77,0.00,,,0.22,Wunderground v.1.15,2013-02-12 05:08:00,
2013-02-12 00:09:00,33.1,27.0,29.51,NNW,329,3.0,9.0,78,0.00,,,0.22,Wunderground v.1.15,2013-02-12 05:09:00,
2013-02-12 00:11:00,32.9,26.8,29.51,ENE,69,2.0,5.0,78,0.00,,,0.22,Wunderground v.1.15,2013-02-12 05:11:00,
2013-02-12 00:12:00,32.9,26.8,29.51,ENE,69,2.0,5.0,78,0.00,,,0.22,Wunderground v.1.15,2013-02-12 05:12:00,
2013-02-12 00:15:00,32.9,27.1,29.51,NNE,20,2.0,5.0,79,0.00,,,0.22,Wunderground v.1.15,2013-02-12 05:15:00,
2013-02-12 00:16:00,32.9,26.5,29.51,North,0,2.0,5.0,77,0.00,,,0.22,Wunderground v.1.15,2013-02-12 05:16:00,
2013-02-12 00:18:00,32.9,26.2,29.51,NE,47,2.0,5.0,76,0.00,,,0.22,Wunderground v.1.15,2013-02-12 05:18:00,
2013-02-12 00:20:00,32.9,26.5,29.51,ENE,72,10.0,10.0,77,0.00,,,0.22,Wunderground v.1.15,2013-02-12 05:20:00,
2013-02-12 00:21:00,32.9,26.2,29.51,East,92,7.0,10.0,76,0.00,,,0.22,Wunderground v.1.15,2013-02-12 05:21:00,
2013-02-12 00:26:00,32.9,26.5,29.51,ENE,64,10.0,10.0,77,0.00,,,0.22,Wunderground v.1.15,2013-02-12 05:26:00,
2013-02-12 00:28:00,32.9,26.2,29.51,NNW,344,3.0,10.0,76,0.00,,,0.22,Wunderground v.1.15,2013-02-12 05:28:00,
2013-02-12 00:30:00,32.9,26.2,29.51,South,188,4.0,5.0,76,0.00,,,0.22,Wunderground v.1.15,2013-02-12 05:30:00,
2013-02-12 00:35:00,32.9,26.2,29.50,ENE,75,3.0,7.0,76,0.00,,,0.22,Wunderground v.1.15,2013-02-12 05:35:00,
2013-02-12 00:36:00,32.9,26.2,29.50,NNW,329,3.0,7.0,76,0.00,,,0.22,Wunderground v.1.15,2013-02-12 05:36:00,
2013-02-12 00:37:00,32.8,26.1,29.50,ESE,119,6.0,7.0,76,0.00,,,0.22,Wunderground v.1.15,2013-02-12 05:37:00,
2013-02-12 00:40:00,32.8,26.1,29.50,NE,41,3.0,5.0,76,0.00,,,0.22,Wunderground v.1.15,2013-02-12 05:40:00,
2013-02-12 00:42:00,32.8,26.1,29.50,SE,137,4.0,6.0,76,0.00,,,0.22,Wunderground v.1.15,2013-02-12 05:42:00,
2013-02-12 00:43:00,32.8,26.1,29.50,ENE,75,4.0,6.0,76,0.00,,,0.22,Wunderground v.1.15,2013-02-12 05:43:00,
2013-02-12 00:45:00,32.7,26.0,29.50,NE,51,5.0,6.0,76,0.00,,,0.22,Wunderground v.1.15,2013-02-12 05:45:00,
2013-02-12 00:47:00,32.7,26.3,29.50,ENE,64,7.0,7.0,77,0.00,,,0.22,Wunderground v.1.15,2013-02-12 05:47:00,
2013-02-12 00:48:00,32.7,26.3,29.50,NNW,335,5.0,7.0,77,0.00,,,0.22,Wunderground v.1.15,2013-02-12 05:48:00,
2013-02-12 00:53:00,32.7,25.6,29.50,North,349,4.0,5.0,75,0.00,,,0.22,Wunderground v.1.15,2013-02-12 05:53:00,
2013-02-12 00:54:00,32.7,26.0,29.50,ENE,69,3.0,5.0,76,0.00,,,0.22,Wunderground v.1.15,2013-02-12 05:54:00,
2013-02-12 00:56:00,32.5,26.1,29.50,NE,55,5.0,10.0,77,0.00,,,0.22,Wunderground v.1.15,2013-02-12 05:56:00,
2013-02-12 00:57:00,32.5,26.4,29.50,North,0,5.0,10.0,78,0.00,,,0.22,Wunderground v.1.15,2013-02-12 05:57:00,
2013-02-12 00:59:00,32.4,26.3,29.50,NE,37,5.0,10.0,78,0.00,,,0.22,Wunderground v.1.15,2013-02-12 05:59:00,
2013-02-12 01:01:00,32.4,26.0,29.50,NNE,17,0.0,6.0,77,0.00,,,0.22,Wunderground v.1.15,2013-02-12 06:01:00,
2013-02-12 01:04:00,32.4,26.0,29.50,NE,55,5.0,6.0,77,0.00,,,0.22,Wunderground v.1.15,2013-02-12 06:04:00,
2013-02-12 01:06:00,32.4,25.7,29.50,East,79,3.0,8.0,76,0.00,,,0.22,Wunderground v.1.15,2013-02-12 06:06:00,
2013-02-12 01:08:00,32.4,26.0,29.50,NE,48,5.0,8.0,77,0.00,,,0.22,Wunderground v.1.15,2013-02-12 06:08:00,
2013-02-12 01:09:00,32.4,26.0,29.50,NE,44,0.0,8.0,77,0.00,,,0.22,Wunderground v.1.15,2013-02-12 06:09:00,
2013-02-12 01:13:00,32.2,26.1,29.50,NE,44,3.0,4.0,78,0.00,,,0.22,Wunderground v.1.15,2013-02-12 06:13:00,
2013-02-12 01:14:00,32.2,26.1,29.50,ESE,113,3.0,4.0,78,0.00,,,0.22,Wunderground v.1.15,2013-02-12 06:14:00,
2013-02-12 01:15:00,32.2,26.1,29.50,ESE,103,6.0,6.0,78,0.00,,,0.22,Wunderground v.1.15,2013-02-12 06:15:00,
2013-02-12 01:19:00,32.2,25.8,29.50,ESE,120,1.0,6.0,77,0.00,,,0.22,Wunderground v.1.15,2013-02-12 06:19:00,
2013-02-12 01:21:00,32.1,26.0,29.50,NE,41,1.0,7.0,78,0.00,,,0.22,Wunderground v.1.15,2013-02-12 06:21:00,
2013-02-12 01:22:00,32.1,25.7,29.50,SSW,196,3.0,7.0,77,0.00,,,0.22,Wunderground v.1.15,2013-02-12 06:22:00,
2013-02-12 01:27:00,32.1,26.3,29.50,ENE,65,4.0,7.0,79,0.00,,,0.22,Wunderground v.1.15,2013-02-12 06:27:00,
2013-02-12 01:29:00,31.9,25.8,29.50,East,79,2.0,7.0,78,0.00,,,0.22,Wunderground v.1.15,2013-02-12 06:29:00,
2013-02-12 01:33:00,31.9,26.1,29.50,NW,325,3.0,3.0,79,0.00,,,0.22,Wunderground v.1.15,2013-02-12 06:33:00,
2013-02-12 01:34:00,31.8,26.0,29.50,NE,41,8.0,8.0,79,0.00,,,0.22,Wunderground v.1.15,2013-02-12 06:34:00,
2013-02-12 01:37:00,31.8,25.7,29.50,NNW,333,2.0,8.0,78,0.00,,,0.22,Wunderground v.1.15,2013-02-12 06:37:00,
2013-02-12 01:39:00,31.8,25.7,29.50,NNW,347,5.0,8.0,78,0.00,,,0.22,Wunderground v.1.15,2013-02-12 06:39:00,
2013-02-12 01:40:00,31.8,25.7,29.50,NW,311,2.0,4.0,78,0.00,,,0.22,Wunderground v.1.15,2013-02-12 06:40:00,
2013-02-12 01:41:00,31.8,25.7,29.50,NNE,27,5.0,5.0,78,0.00,,,0.22,Wunderground v.1.15,2013-02-12 06:41:00,
2013-02-12 01:45:00,31.8,25.7,29.50,ENE,71,4.0,6.0,78,0.00,,,0.22,Wunderground v.1.15,2013-02-12 06:45:00,
2013-02-12 01:47:00,31.8,25.7,29.50,East,89,5.0,6.0,78,0.00,,,0.22,Wunderground v.1.15,2013-02-12 06:47:00,
2013-02-12 01:48:00,31.8,26.0,29.50,East,79,2.0,6.0,79,0.00,,,0.22,Wunderground v.1.15,2013-02-12 06:48:00,
2013-02-12 01:53:00,31.6,25.5,29.50,NE,44,3.0,6.0,78,0.00,,,0.22,Wunderground v.1.15,2013-02-12 06:53:00,
2013-02-12 01:54:00,31.6,25.5,29.50,NE,44,0.0,6.0,78,0.00,,,0.22,Wunderground v.1.15,2013-02-12 06:54:00,
2013-02-12 01:55:00,31.6,25.5,29.50,NE,44,2.0,6.0,78,0.00,,,0.22,Wunderground v.1.15,2013-02-12 06:55:00,
2013-02-12 01:56:00,31.6,25.5,29.50,NE,55,5.0,6.0,78,0.00,,,0.22,Wunderground v.1.15,2013-02-12 06:56:00,
2013-02-12 02:00:00,31.6,25.8,29.50,East,79,2.0,4.0,79,0.00,,,0.22,Wunderground v.1.15,2013-02-12 07:00:00,
2013-02-12 02:01:00,31.6,25.8,29.50,East,79,6.0,6.0,79,0.00,,,0.22,Wunderground v.1.15,2013-02-12 07:01:00,
2013-02-12 02:05:00,31.6,25.5,29.50,NE,41,2.0,6.0,78,0.00,,,0.22,Wunderground v.1.15,2013-02-12 07:05:00,
2013-02-12 02:06:00,31.6,25.5,29.50,NE,55,6.0,6.0,78,0.00,,,0.22,Wunderground v.1.15,2013-02-12 07:06:00,
2013-02-12 02:10:00,31.5,25.7,29.50,NE,37,6.0,6.0,79,0.00,,,0.22,Wunderground v.1.15,2013-02-12 07:10:00,
2013-02-12 02:11:00,31.5,25.4,29.50,NNE,23,3.0,6.0,78,0.00,,,0.22,Wunderground v.1.15,2013-02-12 07:11:00,
2013-02-12 02:12:00,31.5,26.0,29.50,NNE,13,1.0,6.0,80,0.00,,,0.22,Wunderground v.1.15,2013-02-12 07:12:00,
2013-02-12 02:15:00,31.5,25.7,29.50,NNW,346,7.0,7.0,79,0.00,,,0.22,Wunderground v.1.15,2013-02-12 07:15:00,
2013-02-12 02:16:00,31.5,25.4,29.50,NNE,31,6.0,7.0,78,0.00,,,0.22,Wunderground v.1.15,2013-02-12 07:16:00,
2013-02-12 02:17:00,31.5,25.4,29.50,ESE,123,2.0,7.0,78,0.00,,,0.22,Wunderground v.1.15,2013-02-12 07:17:00,
2013-02-12 02:18:00,31.5,25.7,29.50,North,10,4.0,7.0,79,0.00,,,0.22,Wunderground v.1.15,2013-02-12 07:18:00,
2013-02-12 02:21:00,31.5,25.7,29.50,NE,48,0.0,3.0,79,0.00,,,0.22,Wunderground v.1.15,2013-02-12 07:21:00,
2013-02-12 02:22:00,31.5,25.7,29.50,NE,48,3.0,3.0,79,0.00,,,0.22,Wunderground v.1.15,2013-02-12 07:22:00,
2013-02-12 02:23:00,31.5,25.7,29.50,ENE,62,5.0,5.0,79,0.00,,,0.22,Wunderground v.1.15,2013-02-12 07:23:00,
2013-02-12 02:26:00,31.3,25.8,29.50,SSE,155,3.0,8.0,80,0.00,,,0.22,Wunderground v.1.15,2013-02-12 07:26:00,
2013-02-12 02:28:00,31.3,25.5,29.50,East,79,5.0,10.0,79,0.00,,,0.22,Wunderground v.1.15,2013-02-12 07:28:00,
2013-02-12 02:29:00,31.3,25.5,29.50,East,79,1.0,10.0,79,0.00,,,0.22,Wunderground v.1.15,2013-02-12 07:29:00,
2013-02-12 02:32:00,31.3,25.5,29.50,NE,55,9.0,9.0,79,0.00,,,0.22,Wunderground v.1.15,2013-02-12 07:32:00,
2013-02-12 02:34:00,31.3,25.5,29.51,East,86,1.0,9.0,79,0.00,,,0.22,Wunderground v.1.15,2013-02-12 07:34:00,
2013-02-12 02:36:00,31.3,25.2,29.51,ENE,71,5.0,9.0,78,0.00,,,0.22,Wunderground v.1.15,2013-02-12 07:36:00,
2013-02-12 02:37:00,31.3,25.5,29.51,East,93,3.0,9.0,79,0.00,,,0.22,Wunderground v.1.15,2013-02-12 07:37:00,
2013-02-12 02:39:00,31.3,25.5,29.51,East,82,3.0,9.0,79,0.00,,,0.22,Wunderground v.1.15,2013-02-12 07:39:00,
2013-02-12 02:41:00,31.3,25.5,29.51,ENE,72,1.0,3.0,79,0.00,,,0.22,Wunderground v.1.15,2013-02-12 07:41:00,
2013-02-12 02:42:00,31.3,25.2,29.51,East,96,3.0,5.0,78,0.00,,,0.22,Wunderground v.1.15,2013-02-12 07:42:00,
2013-02-12 02:43:00,31.3,25.5,29.51,East,89,2.0,5.0,79,0.00,,,0.22,Wunderground v.1.15,2013-02-12 07:43:00,
2013-02-12 02:45:00,31.3,25.5,29.51,East,89,0.0,5.0,79,0.00,,,0.22,Wunderground v.1.15,2013-02-12 07:45:00,
2013-02-12 02:46:00,31.3,25.5,29.51,East,89,1.0,5.0,79,0.00,,,0.22,Wunderground v.1.15,2013-02-12 07:46:00,
2013-02-12 02:47:00,31.3,25.5,29.51,ENE,71,1.0,8.0,79,0.00,,,0.22,Wunderground v.1.15,2013-02-12 07:47:00,
2013-02-12 02:48:00,31.3,25.5,29.50,ENE,71,2.0,8.0,79,0.00,,,0.22,Wunderground v.1.15,2013-02-12 07:48:00,
2013-02-12 02:50:00,31.2,25.4,29.50,ENE,68,5.0,5.0,79,0.00,,,0.22,Wunderground v.1.15,2013-02-12 07:50:00,
2013-02-12 02:52:00,31.3,25.2,29.50,East,79,1.0,5.0,78,0.00,,,0.22,Wunderground v.1.15,2013-02-12 07:52:00,
2013-02-12 02:54:00,31.3,25.2,29.50,ENE,68,2.0,5.0,78,0.00,,,0.22,Wunderground v.1.15,2013-02-12 07:54:00,
2013-02-12 02:55:00,31.3,25.5,29.50,ESE,109,2.0,5.0,79,0.00,,,0.22,Wunderground v.1.15,2013-02-12 07:55:00,
2013-02-12 02:59:00,31.2,25.4,29.50,NE,41,2.0,12.0,79,0.00,,,0.22,Wunderground v.1.15,2013-02-12 07:59:00,
2013-02-12 03:00:00,31.2,25.1,29.50,South,185,2.0,3.0,78,0.00,,,0.22,Wunderground v.1.15,2013-02-12 08:00:00,
2013-02-12 03:04:00,31.2,25.1,29.50,ENE,72,0.0,3.0,78,0.00,,,0.22,Wunderground v.1.15,2013-02-12 08:04:00,
2013-02-12 03:05:00,31.2,25.1,29.50,ENE,68,5.0,5.0,78,0.00,,,0.22,Wunderground v.1.15,2013-02-12 08:05:00,
2013-02-12 03:07:00,31.2,25.1,29.50,ENE,72,5.0,7.0,78,0.00,,,0.22,Wunderground v.1.15,2013-02-12 08:07:00,
2013-02-12 03:10:00,31.3,25.2,29.50,ENE,75,1.0,2.0,78,0.00,,,0.22,Wunderground v.1.15,2013-02-12 08:10:00,
2013-02-12 03:11:00,31.3,24.9,29.50,East,95,3.0,5.0,77,0.00,,,0.22,Wunderground v.1.15,2013-02-12 08:11:00,
2013-02-12 03:12:00,31.3,24.9,29.50,NE,44,1.0,7.0,77,0.00,,,0.22,Wunderground v.1.15,2013-02-12 08:12:00,
2013-02-12 03:16:00,31.3,24.6,29.50,NE,44,0.0,7.0,76,0.00,,,0.22,Wunderground v.1.15,2013-02-12 08:16:00,
2013-02-12 03:17:00,31.3,24.9,29.50,NE,44,1.0,7.0,77,0.00,,,0.22,Wunderground v.1.15,2013-02-12 08:17:00,
2013-02-12 03:21:00,31.3,24.6,29.50,NNE,24,2.0,7.0,76,0.00,,,0.22,Wunderground v.1.15,2013-02-12 08:21:00,
2013-02-12 03:22:00,31.3,24.6,29.50,ENE,72,3.0,7.0,76,0.00,,,0.22,Wunderground v.1.15,2013-02-12 08:22:00,
2013-02-12 03:23:00,31.3,24.6,29.50,ENE,75,2.0,7.0,76,0.00,,,0.22,Wunderground v.1.15,2013-02-12 08:23:00,
2013-02-12 03:27:00,31.5,24.8,29.50,ENE,78,6.0,7.0,76,0.00,,,0.22,Wunderground v.1.15,2013-02-12 08:27:00,
2013-02-12 03:28:00,31.5,24.8,29.50,ENE,65,2.0,7.0,76,0.00,,,0.22,Wunderground v.1.15,2013-02-12 08:28:00,
2013-02-12 03:29:00,31.5,24.8,29.50,NE,48,6.0,7.0,76,0.00,,,0.22,Wunderground v.1.15,2013-02-12 08:29:00,
2013-02-12 03:32:00,31.5,24.5,29.49,ENE,65,5.0,6.0,75,0.00,,,0.22,Wunderground v.1.15,2013-02-12 08:32:00,
2013-02-12 03:33:00,31.5,24.5,29.49,ENE,58,4.0,6.0,75,0.00,,,0.22,Wunderground v.1.15,2013-02-12 08:33:00,
2013-02-12 03:34:00,31.5,24.5,29.49,ENE,58,3.0,6.0,75,0.00,,,0.22,Wunderground v.1.15,2013-02-12 08:34:00,
2013-02-12 03:38:00,31.5,24.8,29.49,SSE,165,3.0,9.0,76,0.00,,,0.22,Wunderground v.1.15,2013-02-12 08:38:00,
2013-02-12 03:39:00,31.5,24.8,29.49,NE,44,5.0,9.0,76,0.00,,,0.22,Wunderground v.1.15,2013-02-12 08:39:00,
2013-02-12 03:40:00,31.5,24.8,29.49,North,0,1.0,3.0,76,0.00,,,0.22,Wunderground v.1.15,2013-02-12 08:40:00,
2013-02-12 03:43:00,31.5,24.5,29.49,NE,55,8.0,8.0,75,0.00,,,0.22,Wunderground v.1.15,2013-02-12 08:43:00,
2013-02-12 03:44:00,31.5,24.5,29.49,NE,55,7.0,10.0,75,0.00,,,0.22,Wunderground v.1.15,2013-02-12 08:44:00,
2013-02-12 03:45:00,31.5,24.5,29.49,NE,37,5.0,11.0,75,0.00,,,0.22,Wunderground v.1.15,2013-02-12 08:45:00,
2013-02-12 03:49:00,31.5,24.5,29.49,NE,55,3.0,11.0,75,0.00,,,0.22,Wunderground v.1.15,2013-02-12 08:49:00,
2013-02-12 03:50:00,31.5,24.8,29.49,ENE,58,2.0,4.0,76,0.00,,,0.22,Wunderground v.1.15,2013-02-12 08:50:00,
2013-02-12 03:51:00,31.5,24.8,29.49,ENE,58,2.0,4.0,76,0.00,,,0.22,Wunderground v.1.15,2013-02-12 08:51:00,
2013-02-12 03:54:00,31.3,24.6,29.49,ENE,61,7.0,10.0,76,0.00,,,0.22,Wunderground v.1.15,2013-02-12 08:54:00,
2013-02-12 03:55:00,31.5,24.8,29.49,ENE,58,7.0,10.0,76,0.00,,,0.22,Wunderground v.1.15,2013-02-12 08:55:00,
2013-02-12 03:56:00,31.3,24.6,29.49,SE,141,4.0,10.0,76,0.00,,,0.22,Wunderground v.1.15,2013-02-12 08:56:00,
2013-02-12 04:00:00,31.3,24.6,29.49,ENE,68,8.0,8.0,76,0.00,,,0.22,Wunderground v.1.15,2013-02-12 09:00:00,
2013-02-12 04:01:00,31.3,24.6,29.49,NNE,27,4.0,8.0,76,0.00,,,0.22,Wunderground v.1.15,2013-02-12 09:01:00,
2013-02-12 04:02:00,31.3,24.6,29.49,ESE,103,2.0,8.0,76,0.00,,,0.22,Wunderground v.1.15,2013-02-12 09:02:00,
2013-02-12 04:05:00,31.3,24.3,29.49,NE,37,3.0,8.0,75,0.00,,,0.22,Wunderground v.1.15,2013-02-12 09:05:00,
2013-02-12 04:06:00,31.3,24.6,29.49,NNE,27,2.0,8.0,76,0.00,,,0.22,Wunderground v.1.15,2013-02-12 09:06:00,
2013-02-12 04:07:00,31.3,24.6,29.49,NNE,20,2.0,8.0,76,0.00,,,0.22,Wunderground v.1.15,2013-02-12 09:07:00,
2013-02-12 04:08:00,31.3,24.6,29.49,East,82,5.0,8.0,76,0.00,,,0.22,Wunderground v.1.15,2013-02-12 09:08:00,
2013-02-12 04:10:00,31.3,24.6,29.49,ENE,72,2.0,4.0,76,0.00,,,0.22,Wunderground v.1.15,2013-02-12 09:10:00,
2013-02-12 04:11:00,31.3,24.6,29.49,ENE,68,1.0,5.0,76,0.00,,,0.22,Wunderground v.1.15,2013-02-12 09:11:00,
2013-02-12 04:12:00,31.3,24.6,29.49,NE,55,5.0,5.0,76,0.00,,,0.22,Wunderground v.1.15,2013-02-12 09:12:00,
2013-02-12 04:13:00,31.3,24.9,29.49,ENE,62,13.0,13.0,77,0.00,,,0.22,Wunderground v.1.15,2013-02-12 09:13:00,
2013-02-12 04:15:00,31.3,24.3,29.49,NE,41,2.0,13.0,75,0.00,,,0.22,Wunderground v.1.15,2013-02-12 09:15:00,
2013-02-12 04:16:00,31.3,24.6,29.49,North,0,2.0,13.0,76,0.00,,,0.22,Wunderground v.1.15,2013-02-12 09:16:00,
2013-02-12 04:18:00,31.3,24.6,29.48,North,10,2.0,13.0,76,0.00,,,0.22,Wunderground v.1.15,2013-02-12 09:18:00,
2013-02-12 04:19:00,31.3,24.6,29.48,NNE,16,2.0,13.0,76,0.00,,,0.22,Wunderground v.1.15,2013-02-12 09:19:00,
2013-02-12 04:21:00,31.3,24.3,29.48,NW,316,6.0,11.0,75,0.00,,,0.22,Wunderground v.1.15,2013-02-12 09:21:00,
2013-02-12 04:22:00,31.5,24.5,29.48,NW,322,2.0,11.0,75,0.00,,,0.22,Wunderground v.1.15,2013-02-12 09:22:00,
2013-02-12 04:24:00,31.5,24.5,29.48,ENE,65,1.0,11.0,75,0.00,,,0.22,Wunderground v.1.15,2013-02-12 09:24:00,
2013-02-12 04:26:00,31.5,24.5,29.48,ENE,71,3.0,11.0,75,0.00,,,0.22,Wunderground v.1.15,2013-02-12 09:26:00,
2013-02-12 04:27:00,31.5,24.8,29.48,NE,41,3.0,11.0,76,0.00,,,0.22,Wunderground v.1.15,2013-02-12 09:27:00,
2013-02-12 04:29:00,31.3,24.9,29.48,ENE,65,1.0,11.0,77,0.00,,,0.22,Wunderground v.1.15,2013-02-12 09:29:00,
2013-02-12 04:31:00,31.3,24.9,29.48,NNE,27,2.0,5.0,77,0.00,,,0.22,Wunderground v.1.15,2013-02-12 09:31:00,
2013-02-12 04:32:00,31.3,24.9,29.48,ENE,64,3.0,5.0,77,0.00,,,0.22,Wunderground v.1.15,2013-02-12 09:32:00,
2013-02-12 04:34:00,31.2,25.1,29.48,East,79,7.0,7.0,78,0.00,,,0.22,Wunderground v.1.15,2013-02-12 09:34:00,
2013-02-12 04:36:00,31.2,24.8,29.48,NE,51,11.0,11.0,77,0.00,,,0.22,Wunderground v.1.15,2013-02-12 09:36:00,
2013-02-12 04:37:00,31.2,24.5,29.48,East,82,7.0,11.0,76,0.00,,,0.22,Wunderground v.1.15,2013-02-12 09:37:00,
2013-02-12 04:39:00,31.2,25.1,29.48,ENE,72,5.0,11.0,78,0.00,,,0.22,Wunderground v.1.15,2013-02-12 09:39:00,
2013-02-12 04:42:00,31.2,25.1,29.48,NE,44,6.0,13.0,78,0.00,,,0.22,Wunderground v.1.15,2013-02-12 09:42:00,
2013-02-12 04:43:00,31.0,24.6,29.48,NE,51,4.0,13.0,77,0.00,,,0.22,Wunderground v.1.15,2013-02-12 09:43:00,
2013-02-12 04:44:00,31.0,24.9,29.48,NNE,27,3.0,13.0,78,0.00,,,0.22,Wunderground v.1.15,2013-02-12 09:44:00,
2013-02-12 04:47:00,31.0,24.9,29.48,NE,44,8.0,13.0,78,0.00,,,0.22,Wunderground v.1.15,2013-02-12 09:47:00,
2013-02-12 04:48:00,31.0,24.9,29.48,NNW,336,4.0,13.0,78,0.00,,,0.22,Wunderground v.1.15,2013-02-12 09:48:00,
2013-02-12 04:49:00,31.0,24.9,29.48,ENE,71,9.0,13.0,78,0.00,,,0.22,Wunderground v.1.15,2013-02-12 09:49:00,
2013-02-12 04:53:00,31.2,24.8,29.48,NE,41,3.0,12.0,77,0.00,,,0.22,Wunderground v.1.15,2013-02-12 09:53:00,
2013-02-12 04:54:00,31.2,24.8,29.48,East,88,8.0,12.0,77,0.00,,,0.22,Wunderground v.1.15,2013-02-12 09:54:00,
2013-02-12 04:59:00,31.2,24.8,29.48,NNE,24,2.0,15.0,77,0.00,,,0.22,Wunderground v.1.15,2013-02-12 09:59:00,
2013-02-12 05:00:00,31.2,24.8,29.48,ENE,61,7.0,7.0,77,0.00,,,0.22,Wunderground v.1.15,2013-02-12 10:00:00,
2013-02-12 05:01:00,31.2,24.8,29.48,ENE,65,4.0,7.0,77,0.00,,,0.22,Wunderground v.1.15,2013-02-12 10:01:00,
2013-02-12 05:04:00,31.3,24.9,29.47,NE,48,2.0,9.0,77,0.00,,,0.22,Wunderground v.1.15,2013-02-12 10:04:00,
2013-02-12 05:05:00,31.3,24.9,29.47,NE,40,2.0,9.0,77,0.00,,,0.22,Wunderground v.1.15,2013-02-12 10:05:00,
2013-02-12 05:07:00,31.3,24.9,29.47,NE,54,3.0,9.0,77,0.00,,,0.22,Wunderground v.1.15,2013-02-12 10:07:00,
2013-02-12 05:10:00,31.2,24.8,29.47,NNE,27,11.0,11.0,77,0.00,,,0.22,Wunderground v.1.15,2013-02-12 10:10:00,
2013-02-12 05:11:00,31.3,24.6,29.47,East,82,7.0,13.0,76,0.00,,,0.22,Wunderground v.1.15,2013-02-12 10:11:00,
2013-02-12 05:13:00,31.3,24.9,29.47,ENE,68,6.0,13.0,77,0.00,,,0.22,Wunderground v.1.15,2013-02-12 10:13:00,
2013-02-12 05:15:00,31.3,24.6,29.47,NE,51,9.0,13.0,76,0.00,,,0.22,Wunderground v.1.15,2013-02-12 10:15:00,
2013-02-12 05:16:00,31.3,24.6,29.47,ENE,61,6.0,13.0,76,0.00,,,0.22,Wunderground v.1.15,2013-02-12 10:16:00,
2013-02-12 05:20:00,31.3,24.6,29.48,ENE,61,9.0,10.0,76,0.00,,,0.22,Wunderground v.1.15,2013-02-12 10:20:00,
2013-02-12 05:21:00,31.3,24.6,29.48,ENE,61,9.0,10.0,76,0.00,,,0.22,Wunderground v.1.15,2013-02-12 10:21:00,
2013-02-12 05:22:00,31.3,24.9,29.48,ENE,71,11.0,11.0,77,0.00,,,0.22,Wunderground v.1.15,2013-02-12 10:22:00,
2013-02-12 05:25:00,31.3,24.6,29.48,ENE,64,7.0,11.0,76,0.00,,,0.22,Wunderground v.1.15,2013-02-12 10:25:00,
2013-02-12 05:26:00,31.3,24.6,29.48,ENE,69,8.0,11.0,76,0.00,,,0.22,Wunderground v.1.15,2013-02-12 10:26:00,
2013-02-12 05:27:00,31.3,24.6,29.48,ENE,62,10.0,11.0,76,0.00,,,0.22,Wunderground v.1.15,2013-02-12 10:27:00,
2013-02-12 05:28:00,31.5,24.8,29.48,East,93,14.0,14.0,76,0.00,,,0.22,Wunderground v.1.15,2013-02-12 10:28:00,
2013-02-12 05:30:00,31.5,24.5,29.48,North,10,7.0,14.0,75,0.00,,,0.22,Wunderground v.1.15,2013-02-12 10:30:00,
2013-02-12 05:32:00,31.5,24.8,29.48,ENE,71,7.0,14.0,76,0.00,,,0.22,Wunderground v.1.15,2013-02-12 10:32:00,
2013-02-12 05:34:00,31.5,24.8,29.47,NNW,342,2.0,16.0,76,0.00,,,0.22,Wunderground v.1.15,2013-02-12 10:34:00,
2013-02-12 05:35:00,31.5,24.8,29.47,ENE,58,5.0,16.0,76,0.00,,,0.22,Wunderground v.1.15,2013-02-12 10:35:00,
2013-02-12 05:37:00,31.3,24.9,29.47,ENE,71,5.0,17.0,77,0.00,,,0.22,Wunderground v.1.15,2013-02-12 10:37:00,
2013-02-12 05:38:00,31.3,24.6,29.47,East,88,3.0,17.0,76,0.00,,,0.22,Wunderground v.1.15,2013-02-12 10:38:00,
2013-02-12 05:39:00,31.3,24.6,29.47,WNW,287,2.0,17.0,76,0.00,,,0.22,Wunderground v.1.15,2013-02-12 10:39:00,
2013-02-12 05:41:00,31.3,24.6,29.47,NE,44,5.0,10.0,76,0.00,,,0.22,Wunderground v.1.15,2013-02-12 10:41:00,
2013-02-12 05:43:00,31.3,24.6,29.47,NE,51,10.0,13.0,76,0.00,,,0.22,Wunderground v.1.15,2013-02-12 10:43:00,
2013-02-12 05:44:00,31.3,24.6,29.47,NE,40,13.0,13.0,76,0.00,,,0.22,Wunderground v.1.15,2013-02-12 10:44:00,
2013-02-12 05:46:00,31.3,24.9,29.47,NNE,23,6.0,18.0,77,0.00,,,0.22,Wunderground v.1.15,2013-02-12 10:46:00,
2013-02-12 05:48:00,31.3,24.9,29.47,North,10,2.0,18.0,77,0.00,,,0.22,Wunderground v.1.15,2013-02-12 10:48:00,
2013-02-12 05:49:00,31.3,24.9,29.47,North,0,3.0,18.0,77,0.00,,,0.22,Wunderground v.1.15,2013-02-12 10:49:00,
2013-02-12 05:51:00,31.3,24.9,29.47,ENE,65,6.0,8.0,77,0.00,,,0.22,Wunderground v.1.15,2013-02-12 10:51:00,
2013-02-12 05:54:00,31.5,24.5,29.47,NNE,24,5.0,8.0,75,0.00,,,0.22,Wunderground v.1.15,2013-02-12 10:54:00,
2013-02-12 05:56:00,31.5,24.8,29.47,NW,326,4.0,12.0,76,0.00,,,0.22,Wunderground v.1.15,2013-02-12 10:56:00,
2013-02-12 05:57:00,31.5,24.8,29.47,NNW,343,1.0,12.0,76,0.00,,,0.22,Wunderground v.1.15,2013-02-12 10:57:00,
2013-02-12 05:59:00,31.5,24.8,29.47,North,356,3.0,12.0,76,0.00,,,0.22,Wunderground v.1.15,2013-02-12 10:59:00,
2013-02-12 06:01:00,31.3,24.6,29.47,ENE,71,7.0,7.0,76,0.00,,,0.22,Wunderground v.1.15,2013-02-12 11:01:00,
2013-02-12 06:04:00,31.3,24.9,29.48,East,79,10.0,10.0,77,0.00,,,0.22,Wunderground v.1.15,2013-02-12 11:04:00,
2013-02-12 06:07:00,31.3,24.3,29.48,North,354,8.0,11.0,75,0.00,,,0.22,Wunderground v.1.15,2013-02-12 11:07:00,
2013-02-12 06:09:00,31.5,24.5,29.48,ENE,65,7.0,11.0,75,0.00,,,0.22,Wunderground v.1.15,2013-02-12 11:09:00,
2013-02-12 06:12:00,31.5,24.8,29.48,NE,55,4.0,8.0,76,0.00,,,0.22,Wunderground v.1.15,2013-02-12 11:12:00,
2013-02-12 06:14:00,31.3,24.6,29.48,NE,37,10.0,11.0,76,0.00,,,0.22,Wunderground v.1.15,2013-02-12 11:14:00,
2013-02-12 06:15:00,31.3,24.6,29.48,NNE,24,4.0,11.0,76,0.00,,,0.22,Wunderground v.1.15,2013-02-12 11:15:00,
2013-02-12 06:18:00,31.3,24.6,29.48,SSE,164,5.0,12.0,76,0.00,,,0.22,Wunderground v.1.15,2013-02-12 11:18:00,
2013-02-12 06:19:00,31.3,24.9,29.48,NE,34,3.0,12.0,77,0.00,,,0.22,Wunderground v.1.15,2013-02-12 11:19:00,
2013-02-12 06:20:00,31.3,24.9,29.48,NE,41,2.0,7.0,77,0.00,,,0.22,Wunderground v.1.15,2013-02-12 11:20:00,
2013-02-12 06:23:00,31.3,24.6,29.48,ENE,68,4.0,10.0,76,0.00,,,0.22,Wunderground v.1.15,2013-02-12 11:23:00,
2013-02-12 06:24:00,31.3,24.6,29.48,NE,37,5.0,10.0,76,0.00,,,0.22,Wunderground v.1.15,2013-02-12 11:24:00,
2013-02-12 06:25:00,31.3,24.6,29.48,ENE,72,6.0,10.0,76,0.00,,,0.22,Wunderground v.1.15,2013-02-12 11:25:00,
2013-02-12 06:26:00,31.3,24.6,29.48,ENE,75,6.0,10.0,76,0.00,,,0.22,Wunderground v.1.15,2013-02-12 11:26:00,
2013-02-12 06:29:00,31.3,24.6,29.48,ENE,69,2.0,12.0,76,0.00,,,0.22,Wunderground v.1.15,2013-02-12 11:29:00,
2013-02-12 06:31:00,31.3,24.6,29.48,NNE,16,6.0,8.0,76,0.00,,,0.22,Wunderground v.1.15,2013-02-12 11:31:00,
2013-02-12 06:32:00,31.3,24.6,29.48,ENE,78,3.0,11.0,76,0.00,,,0.22,Wunderground v.1.15,2013-02-12 11:32:00,
2013-02-12 06:34:00,31.3,24.6,29.48,ENE,62,13.0,13.0,76,0.00,,,0.22,Wunderground v.1.15,2013-02-12 11:34:00,
2013-02-12 06:36:00,31.5,24.5,29.48,ENE,65,4.0,13.0,75,0.00,,,0.22,Wunderground v.1.15,2013-02-12 11:36:00,
2013-02-12 06:37:00,31.5,24.5,29.48,ENE,75,6.0,13.0,75,0.00,,,0.22,Wunderground v.1.15,2013-02-12 11:37:00,
2013-02-12 06:38:00,31.6,24.6,29.48,NNE,31,4.0,13.0,75,0.00,,,0.22,Wunderground v.1.15,2013-02-12 11:38:00,
2013-02-12 06:40:00,31.6,24.6,29.48,ENE,68,10.0,13.0,75,0.00,,,0.22,Wunderground v.1.15,2013-02-12 11:40:00,
2013-02-12 06:41:00,31.6,24.6,29.48,ENE,58,5.0,13.0,75,0.00,,,0.22,Wunderground v.1.15,2013-02-12 11:41:00,
2013-02-12 06:43:00,31.5,24.8,29.48,ENE,64,5.0,13.0,76,0.00,,,0.22,Wunderground v.1.15,2013-02-12 11:43:00,
2013-02-12 06:44:00,31.5,24.8,29.48,NNE,31,7.0,13.0,76,0.00,,,0.22,Wunderground v.1.15,2013-02-12 11:44:00,
2013-02-12 06:46:00,31.6,24.9,29.48,ENE,69,5.0,13.0,76,0.00,,,0.22,Wunderground v.1.15,2013-02-12 11:46:00,
2013-02-12 06:47:00,31.5,24.8,29.48,West,264,2.0,13.0,76,0.00,,,0.22,Wunderground v.1.15,2013-02-12 11:47:00,
2013-02-12 06:48:00,31.5,24.8,29.48,North,7,5.0,13.0,76,0.00,,,0.22,Wunderground v.1.15,2013-02-12 11:48:00,
2013-02-12 06:49:00,31.5,24.8,29.48,ENE,58,14.0,14.0,76,0.00,,,0.22,Wunderground v.1.15,2013-02-12 11:49:00,
2013-02-12 06:52:00,31.3,24.9,29.48,NE,44,2.0,6.0,77,0.00,,,0.22,Wunderground v.1.15,2013-02-12 11:52:00,
2013-02-12 06:54:00,31.3,24.9,29.48,NNE,20,7.0,11.0,77,0.00,,,0.22,Wunderground v.1.15,2013-02-12 11:54:00,
2013-02-12 06:55:00,31.3,24.9,29.48,NE,41,2.0,11.0,77,0.00,,,0.22,Wunderground v.1.15,2013-02-12 11:55:00,
2013-02-12 06:58:00,31.2,24.8,29.48,NE,51,3.0,11.0,77,0.00,,,0.22,Wunderground v.1.15,2013-02-12 11:58:00,
2013-02-12 07:00:00,31.2,25.1,29.48,NE,55,2.0,5.0,78,0.00,,,0.22,Wunderground v.1.15,2013-02-12 12:00:00,
2013-02-12 07:01:00,31.0,24.9,29.48,NE,37,5.0,5.0,78,0.00,,,0.22,Wunderground v.1.15,2013-02-12 12:01:00,
2013-02-12 07:03:00,31.0,24.9,29.49,NNE,24,3.0,11.0,78,0.00,,,0.22,Wunderground v.1.15,2013-02-12 12:03:00,
2013-02-12 07:04:00,31.0,24.9,29.49,NNE,23,7.0,11.0,78,0.00,,,0.22,Wunderground v.1.15,2013-02-12 12:04:00,
2013-02-12 07:05:00,31.0,24.9,29.49,NE,34,8.0,11.0,78,0.00,,,0.22,Wunderground v.1.15,2013-02-12 12:05:00,
2013-02-12 07:06:00,31.2,25.1,29.49,ENE,65,7.0,11.0,78,0.00,,,0.22,Wunderground v.1.15,2013-02-12 12:06:00,
2013-02-12 07:09:00,31.3,24.9,29.49,ENE,75,5.0,13.0,77,0.00,,,0.22,Wunderground v.1.15,2013-02-12 12:09:00,
2013-02-12 07:10:00,31.3,24.9,29.49,NE,37,7.0,10.0,77,0.00,,,0.22,Wunderground v.1.15,2013-02-12 12:10:00,
2013-02-12 07:11:00,31.3,24.9,29.49,NNE,17,5.0,10.0,77,0.00,,,0.22,Wunderground v.1.15,2013-02-12 12:11:00,
2013-02-12 07:14:00,31.3,25.2,29.49,NE,55,4.0,10.0,78,0.00,,,0.22,Wunderground v.1.15,2013-02-12 12:14:00,
2013-02-12 07:16:00,31.2,25.1,29.49,East,96,5.0,10.0,78,0.00,,,0.22,Wunderground v.1.15,2013-02-12 12:16:00,
2013-02-12 07:17:00,31.2,25.1,29.49,NE,48,4.0,10.0,78,0.00,,,0.22,Wunderground v.1.15,2013-02-12 12:17:00,
2013-02-12 07:20:00,31.0,25.2,29.49,NE,51,4.0,5.0,79,0.00,,,0.22,Wunderground v.1.15,2013-02-12 12:20:00,
2013-02-12 07:22:00,31.2,25.1,29.49,ENE,64,5.0,9.0,78,0.00,,,0.22,Wunderground v.1.15,2013-02-12 12:22:00,
2013-02-12 07:23:00,31.2,25.4,29.49,ENE,64,0.0,9.0,79,0.00,,,0.22,Wunderground v.1.15,2013-02-12 12:23:00,
2013-02-12 07:25:00,31.2,25.4,29.49,East,100,5.0,9.0,79,0.00,,,0.22,Wunderground v.1.15,2013-02-12 12:25:00,
2013-02-12 07:27:00,31.0,24.9,29.49,ENE,61,7.0,9.0,78,0.00,,,0.22,Wunderground v.1.15,2013-02-12 12:27:00,
2013-02-12 07:28:00,31.0,24.6,29.49,NE,55,9.0,9.0,77,0.00,,,0.22,Wunderground v.1.15,2013-02-12 12:28:00,
2013-02-12 07:30:00,31.2,25.1,29.49,East,96,4.0,6.0,78,0.00,,,0.22,Wunderground v.1.15,2013-02-12 12:30:00,
2013-02-12 07:33:00,31.2,24.8,29.50,North,10,5.0,11.0,77,0.00,,,0.22,Wunderground v.1.15,2013-02-12 12:33:00,
2013-02-12 07:34:00,31.2,25.1,29.50,South,176,2.0,11.0,78,0.00,,,0.22,Wunderground v.1.15,2013-02-12 12:34:00,
2013-02-12 07:35:00,31.2,25.4,29.50,NE,47,6.0,11.0,79,0.00,,,0.22,Wunderground v.1.15,2013-02-12 12:35:00,
2013-02-12 07:36:00,31.2,25.4,29.50,ENE,64,8.0,11.0,79,0.00,,,0.22,Wunderground v.1.15,2013-02-12 12:36:00,
2013-02-12 07:38:00,31.2,25.1,29.50,ENE,64,5.0,11.0,78,0.00,,,0.22,Wunderground v.1.15,2013-02-12 12:38:00,
2013-02-12 07:39:00,31.2,25.1,29.50,SW,226,3.0,11.0,78,0.00,,,0.22,Wunderground v.1.15,2013-02-12 12:39:00,
2013-02-12 07:40:00,31.2,24.8,29.50,NNW,337,6.0,13.0,77,0.00,,,0.22,Wunderground v.1.15,2013-02-12 12:40:00,
2013-02-12 07:43:00,31.3,25.2,29.50,NE,44,1.0,13.0,78,0.00,,,0.22,Wunderground v.1.15,2013-02-12 12:43:00,
2013-02-12 07:45:00,31.3,25.5,29.50,ENE,69,2.0,13.0,79,0.00,,,0.22,Wunderground v.1.15,2013-02-12 12:45:00,
2013-02-12 07:46:00,31.3,25.8,29.50,ENE,68,4.0,13.0,80,0.00,,,0.22,Wunderground v.1.15,2013-02-12 12:46:00,
2013-02-12 07:48:00,31.2,25.4,29.49,NE,41,2.0,13.0,79,0.00,,,0.22,Wunderground v.1.15,2013-02-12 12:48:00,
2013-02-12 07:52:00,31.0,25.6,29.49,ENE,68,7.0,13.0,80,0.00,,,0.22,Wunderground v.1.15,2013-02-12 12:52:00,
2013-02-12 07:53:00,31.0,25.2,29.49,ENE,62,12.0,13.0,79,0.00,,,0.22,Wunderground v.1.15,2013-02-12 12:53:00,
2013-02-12 07:55:00,31.0,24.9,29.49,NNE,23,2.0,13.0,78,0.00,,,0.22,Wunderground v.1.15,2013-02-12 12:55:00,
2013-02-12 07:57:00,31.2,25.4,29.49,ENE,71,12.0,13.0,79,0.00,,,0.22,Wunderground v.1.15,2013-02-12 12:57:00,
2013-02-12 07:58:00,31.2,25.1,29.49,North,349,1.0,13.0,78,0.00,,,0.22,Wunderground v.1.15,2013-02-12 12:58:00,
2013-02-12 07:59:00,31.2,25.4,29.49,ENE,65,2.0,13.0,79,0.00,,,0.22,Wunderground v.1.15,2013-02-12 12:59:00,
2013-02-12 08:01:00,31.3,25.2,29.49,NE,34,16.0,16.0,78,0.00,,,0.22,Wunderground v.1.15,2013-02-12 13:01:00,
2013-02-12 08:02:00,31.5,24.8,29.49,ENE,72,11.0,16.0,76,0.00,,,0.22,Wunderground v.1.15,2013-02-12 13:02:00,
2013-02-12 08:04:00,31.6,24.9,29.49,NNE,27,11.0,16.0,76,0.00,,,0.22,Wunderground v.1.15,2013-02-12 13:04:00,
2013-02-12 08:05:00,31.6,24.6,29.49,WNW,296,4.0,16.0,75,0.00,,,0.22,Wunderground v.1.15,2013-02-12 13:05:00,
2013-02-12 08:06:00,31.8,24.8,29.49,South,185,5.0,16.0,75,0.00,,,0.22,Wunderground v.1.15,2013-02-12 13:06:00,
2013-02-12 08:07:00,31.8,24.8,29.49,ENE,65,6.0,16.0,75,0.00,,,0.22,Wunderground v.1.15,2013-02-12 13:07:00,
2013-02-12 08:09:00,31.8,25.1,29.49,WSW,239,3.0,16.0,76,0.00,,,0.22,Wunderground v.1.15,2013-02-12 13:09:00,
2013-02-12 08:10:00,31.8,25.1,29.49,NNE,20,7.0,8.0,76,0.00,,,0.22,Wunderground v.1.15,2013-02-12 13:10:00,
2013-02-12 08:12:00,31.8,25.4,29.49,NE,48,5.0,8.0,77,0.00,,,0.22,Wunderground v.1.15,2013-02-12 13:12:00,
2013-02-12 08:13:00,31.8,25.1,29.49,WSW,244,2.0,8.0,76,0.00,,,0.22,Wunderground v.1.15,2013-02-12 13:13:00,
2013-02-12 08:14:00,31.8,25.1,29.49,ENE,75,2.0,8.0,76,0.00,,,0.22,Wunderground v.1.15,2013-02-12 13:14:00,
2013-02-12 08:16:00,31.6,24.9,29.49,NE,55,8.0,12.0,76,0.00,,,0.22,Wunderground v.1.15,2013-02-12 13:16:00,
2013-02-12 08:18:00,31.6,24.9,29.50,ENE,75,5.0,17.0,76,0.00,,,0.22,Wunderground v.1.15,2013-02-12 13:18:00,
2013-02-12 08:19:00,31.6,25.2,29.50,North,357,5.0,17.0,77,0.00,,,0.22,Wunderground v.1.15,2013-02-12 13:19:00,
2013-02-12 08:21:00,31.5,25.1,29.50,SW,215,5.0,12.0,77,0.00,,,0.22,Wunderground v.1.15,2013-02-12 13:21:00,
2013-02-12 08:23:00,31.6,24.9,29.50,East,85,10.0,12.0,76,0.00,,,0.22,Wunderground v.1.15,2013-02-12 13:23:00,
2013-02-12 08:24:00,31.6,25.2,29.50,NE,54,2.0,12.0,77,0.00,,,0.22,Wunderground v.1.15,2013-02-12 13:24:00,
2013-02-12 08:27:00,31.6,24.9,29.50,NE,51,5.0,12.0,76,0.00,,,0.22,Wunderground v.1.15,2013-02-12 13:27:00,
2013-02-12 08:29:00,31.6,24.9,29.50,NE,51,7.0,12.0,76,0.00,,,0.22,Wunderground v.1.15,2013-02-12 13:29:00,
2013-02-12 08:30:00,31.6,25.2,29.50,NE,55,5.0,13.0,77,0.00,,,0.22,Wunderground v.1.15,2013-02-12 13:30:00,
2013-02-12 08:34:00,31.6,24.6,29.50,NE,44,3.0,13.0,75,0.00,,,0.22,Wunderground v.1.15,2013-02-12 13:34:00,
2013-02-12 08:36:00,31.8,24.8,29.50,ENE,65,10.0,14.0,75,0.00,,,0.22,Wunderground v.1.15,2013-02-12 13:36:00,
2013-02-12 08:39:00,31.6,24.9,29.50,ENE,68,8.0,14.0,76,0.00,,,0.22,Wunderground v.1.15,2013-02-12 13:39:00,
2013-02-12 08:40:00,31.6,24.9,29.50,ENE,65,7.0,7.0,76,0.00,,,0.22,Wunderground v.1.15,2013-02-12 13:40:00,
2013-02-12 08:41:00,31.6,25.2,29.50,NNE,27,7.0,12.0,77,0.00,,,0.22,Wunderground v.1.15,2013-02-12 13:41:00,
2013-02-12 08:45:00,31.6,24.9,29.50,NNE,13,5.0,12.0,76,0.00,,,0.22,Wunderground v.1.15,2013-02-12 13:45:00,
2013-02-12 08:46:00,31.6,24.9,29.50,North,6,3.0,12.0,76,0.00,,,0.22,Wunderground v.1.15,2013-02-12 13:46:00,
2013-02-12 08:47:00,31.6,24.9,29.50,NNW,343,6.0,12.0,76,0.00,,,0.22,Wunderground v.1.15,2013-02-12 13:47:00,
2013-02-12 08:50:00,31.5,25.4,29.51,ENE,68,13.0,13.0,78,0.00,,,0.22,Wunderground v.1.15,2013-02-12 13:50:00,
2013-02-12 08:51:00,31.5,25.1,29.51,East,82,7.0,13.0,77,0.00,,,0.22,Wunderground v.1.15,2013-02-12 13:51:00,
2013-02-12 08:53:00,31.5,25.4,29.51,NNE,24,12.0,18.0,78,0.00,,,0.22,Wunderground v.1.15,2013-02-12 13:53:00,
2013-02-12 08:57:00,31.3,25.2,29.51,NE,55,8.0,18.0,78,0.00,,,0.22,Wunderground v.1.15,2013-02-12 13:57:00,
2013-02-12 08:58:00,31.3,25.2,29.51,NE,54,6.0,18.0,78,0.00,,,0.22,Wunderground v.1.15,2013-02-12 13:58:00,
2013-02-12 08:59:00,31.3,25.2,29.51,NE,51,5.0,18.0,78,0.00,,,0.22,Wunderground v.1.15,2013-02-12 13:59:00,
2013-02-12 09:02:00,31.3,25.2,29.51,NE,51,4.0,7.0,78,0.00,,,0.22,Wunderground v.1.15,2013-02-12 14:02:00,
2013-02-12 09:03:00,31.3,25.2,29.51,East,93,3.0,7.0,78,0.00,,,0.22,Wunderground v.1.15,2013-02-12 14:03:00,
2013-02-12 09:04:00,31.5,25.4,29.51,ENE,71,5.0,7.0,78,0.00,,,0.22,Wunderground v.1.15,2013-02-12 14:04:00,
2013-02-12 09:08:00,31.3,25.5,29.51,NE,40,2.0,12.0,79,0.00,,,0.22,Wunderground v.1.15,2013-02-12 14:08:00,
2013-02-12 09:09:00,31.3,25.5,29.51,ENE,71,4.0,12.0,79,0.00,,,0.22,Wunderground v.1.15,2013-02-12 14:09:00,
2013-02-12 09:13:00,31.2,25.7,29.51,ENE,68,1.0,14.0,80,0.00,,,0.22,Wunderground v.1.15,2013-02-12 14:13:00,
2013-02-12 09:14:00,31.2,25.4,29.51,ENE,68,2.0,14.0,79,0.00,,,0.22,Wunderground v.1.15,2013-02-12 14:14:00,
2013-02-12 09:15:00,31.2,25.7,29.51,East,86,3.0,14.0,80,0.00,,,0.22,Wunderground v.1.15,2013-02-12 14:15:00,
2013-02-12 09:18:00,31.2,25.4,29.52,South,175,1.0,14.0,79,0.00,,,0.22,Wunderground v.1.15,2013-02-12 14:18:00,
2013-02-12 09:19:00,31.3,25.8,29.52,SSE,158,2.0,14.0,80,0.00,,,0.22,Wunderground v.1.15,2013-02-12 14:19:00,
2013-02-12 09:20:00,31.3,25.8,29.52,SSW,206,1.0,3.0,80,0.00,,,0.22,Wunderground v.1.15,2013-02-12 14:20:00,
2013-02-12 09:21:00,31.3,25.8,29.52,South,184,5.0,6.0,80,0.00,,,0.22,Wunderground v.1.15,2013-02-12 14:21:00,
2013-02-12 09:23:00,31.2,25.7,29.52,East,82,8.0,8.0,80,0.00,,,0.22,Wunderground v.1.15,2013-02-12 14:23:00,
2013-02-12 09:24:00,31.2,25.7,29.52,West,261,4.0,8.0,80,0.00,,,0.22,Wunderground v.1.15,2013-02-12 14:24:00,
2013-02-12 09:26:00,31.2,25.7,29.52,East,82,5.0,8.0,80,0.00,,,0.22,Wunderground v.1.15,2013-02-12 14:26:00,
2013-02-12 09:27:00,31.3,25.8,29.52,NNE,31,2.0,8.0,80,0.00,,,0.22,Wunderground v.1.15,2013-02-12 14:27:00,
2013-02-12 09:29:00,31.3,25.8,29.52,South,186,0.0,8.0,80,0.00,,,0.22,Wunderground v.1.15,2013-02-12 14:29:00,
2013-02-12 09:31:00,31.3,25.5,29.52,ENE,71,3.0,11.0,79,0.00,,,0.22,Wunderground v.1.15,2013-02-12 14:31:00,
2013-02-12 09:34:00,31.3,24.9,29.53,ENE,72,1.0,11.0,77,0.00,,,0.22,Wunderground v.1.15,2013-02-12 14:34:00,
2013-02-12 09:36:00,31.5,25.4,29.53,East,88,6.0,11.0,78,0.00,,,0.22,Wunderground v.1.15,2013-02-12 14:36:00,
2013-02-12 09:39:00,31.6,25.2,29.53,ENE,75,6.0,16.0,77,0.00,,,0.22,Wunderground v.1.15,2013-02-12 14:39:00,
2013-02-12 09:40:00,31.6,25.5,29.53,NE,48,12.0,12.0,78,0.00,,,0.22,Wunderground v.1.15,2013-02-12 14:40:00,
2013-02-12 09:43:00,31.8,25.1,29.53,East,79,5.0,14.0,76,0.00,,,0.22,Wunderground v.1.15,2013-02-12 14:43:00,
2013-02-12 09:44:00,31.8,24.8,29.53,ENE,65,3.0,14.0,75,0.00,,,0.22,Wunderground v.1.15,2013-02-12 14:44:00,
2013-02-12 09:45:00,31.8,25.1,29.53,NE,40,10.0,14.0,76,0.00,,,0.22,Wunderground v.1.15,2013-02-12 14:45:00,
2013-02-12 09:48:00,31.8,25.1,29.54,NNE,30,10.0,14.0,76,0.00,,,0.22,Wunderground v.1.15,2013-02-12 14:48:00,
2013-02-12 09:49:00,31.8,24.8,29.54,NNE,30,5.0,14.0,75,0.00,,,0.22,Wunderground v.1.15,2013-02-12 14:49:00,
2013-02-12 09:50:00,31.8,24.8,29.54,NNE,31,3.0,10.0,75,0.00,,,0.22,Wunderground v.1.15,2013-02-12 14:50:00,
2013-02-12 09:51:00,31.8,25.1,29.54,ENE,71,8.0,10.0,76,0.00,,,0.22,Wunderground v.1.15,2013-02-12 14:51:00,
2013-02-12 09:53:00,31.8,24.8,29.54,NNE,31,2.0,10.0,75,0.00,,,0.22,Wunderground v.1.15,2013-02-12 14:53:00,
2013-02-12 09:54:00,31.8,24.8,29.54,ENE,78,8.0,10.0,75,0.00,,,0.22,Wunderground v.1.15,2013-02-12 14:54:00,
2013-02-12 09:55:00,31.8,24.8,29.54,NNE,31,11.0,16.0,75,0.00,,,0.22,Wunderground v.1.15,2013-02-12 14:55:00,
2013-02-12 09:57:00,31.8,24.5,29.54,North,357,6.0,16.0,74,0.00,,,0.22,Wunderground v.1.15,2013-02-12 14:57:00,
2013-02-12 09:59:00,31.8,24.5,29.54,SSE,151,10.0,16.0,74,0.00,,,0.22,Wunderground v.1.15,2013-02-12 14:59:00,
2013-02-12 10:01:00,31.8,25.1,29.54,East,79,2.0,8.0,76,0.00,,,0.22,Wunderground v.1.15,2013-02-12 15:01:00,
2013-02-12 10:02:00,31.8,25.4,29.54,WSW,243,1.0,8.0,77,0.00,,,0.22,Wunderground v.1.15,2013-02-12 15:02:00,
2013-02-12 10:05:00,31.5,25.4,29.54,NE,51,2.0,13.0,78,0.00,,,0.22,Wunderground v.1.15,2013-02-12 15:05:00,
2013-02-12 10:06:00,31.3,25.5,29.54,East,79,11.0,13.0,79,0.00,,,0.22,Wunderground v.1.15,2013-02-12 15:06:00,
2013-02-12 10:07:00,31.2,25.4,29.54,NE,48,12.0,13.0,79,0.00,,,0.22,Wunderground v.1.15,2013-02-12 15:07:00,
2013-02-12 10:08:00,31.2,25.4,29.54,NE,34,11.0,13.0,79,0.00,,,0.22,Wunderground v.1.15,2013-02-12 15:08:00,
2013-02-12 10:10:00,31.2,25.1,29.54,ENE,62,12.0,12.0,78,0.00,,,0.22,Wunderground v.1.15,2013-02-12 15:10:00,
2013-02-12 10:11:00,31.2,24.5,29.54,ENE,58,5.0,15.0,76,0.00,,,0.22,Wunderground v.1.15,2013-02-12 15:11:00,
2013-02-12 10:13:00,31.3,24.6,29.54,ENE,71,12.0,15.0,76,0.00,,,0.22,Wunderground v.1.15,2013-02-12 15:13:00,
2013-02-12 10:15:00,31.5,24.5,29.54,NE,34,7.0,16.0,75,0.00,,,0.22,Wunderground v.1.15,2013-02-12 15:15:00,
2013-02-12 10:17:00,31.6,24.6,29.54,NNE,27,10.0,16.0,75,0.00,,,0.22,Wunderground v.1.15,2013-02-12 15:17:00,
2013-02-12 10:18:00,31.8,24.5,29.54,ENE,65,10.0,16.0,74,0.00,,,0.22,Wunderground v.1.15,2013-02-12 15:18:00,
2013-02-12 10:19:00,31.8,24.5,29.54,ENE,72,8.0,16.0,74,0.00,,,0.22,Wunderground v.1.15,2013-02-12 15:19:00,
2013-02-12 10:20:00,31.9,24.6,29.54,East,86,9.0,14.0,74,0.00,,,0.22,Wunderground v.1.15,2013-02-12 15:20:00,
2013-02-12 10:22:00,31.9,24.6,29.54,ENE,58,9.0,16.0,74,0.00,,,0.22,Wunderground v.1.15,2013-02-12 15:22:00,
2013-02-12 10:24:00,31.9,24.6,29.54,NE,51,8.0,16.0,74,0.00,,,0.22,Wunderground v.1.15,2013-02-12 15:24:00,
2013-02-12 10:25:00,31.9,24.6,29.54,SSE,151,6.0,16.0,74,0.00,,,0.22,Wunderground v.1.15,2013-02-12 15:25:00,
2013-02-12 10:28:00,31.9,24.6,29.54,SE,144,6.0,16.0,74,0.00,,,0.22,Wunderground v.1.15,2013-02-12 15:28:00,
2013-02-12 10:29:00,32.1,24.4,29.54,ENE,75,7.0,19.0,73,0.00,,,0.22,Wunderground v.1.15,2013-02-12 15:29:00,
2013-02-12 10:31:00,32.1,24.1,29.54,ENE,65,7.0,18.0,72,0.00,,,0.22,Wunderground v.1.15,2013-02-12 15:31:00,
2013-02-12 10:33:00,32.2,24.2,29.55,NNE,13,6.0,18.0,72,0.00,,,0.22,Wunderground v.1.15,2013-02-12 15:33:00,
2013-02-12 10:35:00,32.2,24.2,29.55,East,96,5.0,18.0,72,0.00,,,0.22,Wunderground v.1.15,2013-02-12 15:35:00,
2013-02-12 10:36:00,32.4,24.4,29.55,SE,144,8.0,18.0,72,0.00,,,0.22,Wunderground v.1.15,2013-02-12 15:36:00,
2013-02-12 10:39:00,32.4,24.0,29.55,East,88,12.0,18.0,71,0.00,,,0.22,Wunderground v.1.15,2013-02-12 15:39:00,
2013-02-12 10:40:00,32.4,24.0,29.55,SSW,200,5.0,8.0,71,0.00,,,0.22,Wunderground v.1.15,2013-02-12 15:40:00,
2013-02-12 10:42:00,32.4,24.0,29.55,South,184,11.0,19.0,71,0.00,,,0.22,Wunderground v.1.15,2013-02-12 15:42:00,
2013-02-12 10:44:00,32.4,24.0,29.55,East,82,5.0,19.0,71,0.00,,,0.22,Wunderground v.1.15,2013-02-12 15:44:00,
2013-02-12 10:45:00,32.4,24.0,29.55,West,278,6.0,19.0,71,0.00,,,0.22,Wunderground v.1.15,2013-02-12 15:45:00,
2013-02-12 10:46:00,32.4,24.0,29.55,West,278,6.0,19.0,71,0.00,,,0.22,Wunderground v.1.15,2013-02-12 15:46:00,
2013-02-12 10:48:00,32.4,24.0,29.56,SE,134,3.0,19.0,71,0.00,,,0.22,Wunderground v.1.15,2013-02-12 15:48:00,
2013-02-12 10:50:00,32.5,24.1,29.56,ENE,58,7.0,12.0,71,0.00,,,0.22,Wunderground v.1.15,2013-02-12 15:50:00,
2013-02-12 10:51:00,32.5,24.1,29.56,ESE,113,14.0,14.0,71,0.00,,,0.22,Wunderground v.1.15,2013-02-12 15:51:00,
2013-02-12 10:53:00,32.5,24.1,29.56,ENE,65,7.0,17.0,71,0.00,,,0.22,Wunderground v.1.15,2013-02-12 15:53:00,
2013-02-12 10:56:00,32.5,24.1,29.56,ENE,72,6.0,17.0,71,0.00,,,0.22,Wunderground v.1.15,2013-02-12 15:56:00,
2013-02-12 10:57:00,32.5,24.5,29.56,NE,55,13.0,17.0,72,0.00,,,0.22,Wunderground v.1.15,2013-02-12 15:57:00,
2013-02-12 10:58:00,32.5,24.5,29.56,NNW,346,8.0,17.0,72,0.00,,,0.22,Wunderground v.1.15,2013-02-12 15:58:00,
2013-02-12 11:01:00,32.7,24.7,29.56,NE,51,6.0,12.0,72,0.00,,,0.22,Wunderground v.1.15,2013-02-12 16:01:00,
2013-02-12 11:02:00,32.7,24.7,29.56,NE,48,6.0,12.0,72,0.00,,,0.22,Wunderground v.1.15,2013-02-12 16:02:00,
2013-02-12 11:05:00,32.7,24.3,29.56,ENE,65,4.0,12.0,71,0.00,,,0.22,Wunderground v.1.15,2013-02-12 16:05:00,
2013-02-12 11:06:00,32.7,24.7,29.56,SSE,151,2.0,12.0,72,0.00,,,0.22,Wunderground v.1.15,2013-02-12 16:06:00,
2013-02-12 11:07:00,32.7,24.7,29.56,ENE,68,5.0,12.0,72,0.00,,,0.22,Wunderground v.1.15,2013-02-12 16:07:00,
2013-02-12 11:09:00,32.8,24.8,29.56,North,356,2.0,12.0,72,0.00,,,0.22,Wunderground v.1.15,2013-02-12 16:09:00,
2013-02-12 11:10:00,32.8,24.8,29.56,NE,44,6.0,6.0,72,0.00,,,0.22,Wunderground v.1.15,2013-02-12 16:10:00,
2013-02-12 11:12:00,32.8,24.4,29.56,ENE,58,5.0,12.0,71,0.00,,,0.22,Wunderground v.1.15,2013-02-12 16:12:00,
2013-02-12 11:13:00,32.8,24.8,29.56,South,184,5.0,12.0,72,0.00,,,0.22,Wunderground v.1.15,2013-02-12 16:13:00,
2013-02-12 11:14:00,32.8,24.8,29.56,ENE,62,6.0,13.0,72,0.00,,,0.22,Wunderground v.1.15,2013-02-12 16:14:00,
2013-02-12 11:16:00,32.8,24.4,29.56,NE,40,7.0,17.0,71,0.00,,,0.22,Wunderground v.1.15,2013-02-12 16:16:00,
2013-02-12 11:17:00,32.8,24.4,29.56,East,79,11.0,17.0,71,0.00,,,0.22,Wunderground v.1.15,2013-02-12 16:17:00,
2013-02-12 11:18:00,32.8,24.4,29.56,ENE,71,3.0,17.0,71,0.00,,,0.22,Wunderground v.1.15,2013-02-12 16:18:00,
2013-02-12 11:19:00,32.8,24.4,29.56,East,85,2.0,17.0,71,0.00,,,0.22,Wunderground v.1.15,2013-02-12 16:19:00,
2013-02-12 11:21:00,32.8,24.4,29.56,NE,41,6.0,12.0,71,0.00,,,0.22,Wunderground v.1.15,2013-02-12 16:21:00,
2013-02-12 11:22:00,32.8,24.4,29.56,ENE,61,3.0,12.0,71,0.00,,,0.22,Wunderground v.1.15,2013-02-12 16:22:00,
2013-02-12 11:23:00,32.7,24.3,29.56,NE,48,3.0,12.0,71,0.00,,,0.22,Wunderground v.1.15,2013-02-12 16:23:00,
2013-02-12 11:24:00,32.7,24.3,29.56,NE,55,9.0,12.0,71,0.00,,,0.22,Wunderground v.1.15,2013-02-12 16:24:00,
2013-02-12 11:26:00,32.7,24.3,29.56,NE,55,7.0,12.0,71,0.00,,,0.22,Wunderground v.1.15,2013-02-12 16:26:00,
2013-02-12 11:27:00,32.7,24.3,29.56,ENE,75,16.0,16.0,71,0.00,,,0.22,Wunderground v.1.15,2013-02-12 16:27:00,
2013-02-12 11:28:00,32.7,24.3,29.56,SW,227,2.0,16.0,71,0.00,,,0.22,Wunderground v.1.15,2013-02-12 16:28:00,
2013-02-12 11:29:00,32.8,24.4,29.56,NE,55,6.0,16.0,71,0.00,,,0.22,Wunderground v.1.15,2013-02-12 16:29:00,
2013-02-12 11:32:00,32.8,24.4,29.56,East,85,3.0,12.0,71,0.00,,,0.22,Wunderground v.1.15,2013-02-12 16:32:00,
2013-02-12 11:33:00,32.8,24.8,29.57,NE,55,3.0,12.0,72,0.00,,,0.22,Wunderground v.1.15,2013-02-12 16:33:00,
2013-02-12 11:35:00,32.8,24.4,29.57,ENE,61,2.0,12.0,71,0.00,,,0.22,Wunderground v.1.15,2013-02-12 16:35:00,
2013-02-12 11:37:00,32.9,24.5,29.57,South,189,4.0,12.0,71,0.00,,,0.22,Wunderground v.1.15,2013-02-12 16:37:00,
2013-02-12 11:38:00,32.9,24.5,29.57,NE,55,7.0,12.0,71,0.00,,,0.22,Wunderground v.1.15,2013-02-12 16:38:00,
2013-02-12 11:40:00,32.9,24.5,29.57,NNE,13,12.0,12.0,71,0.00,,,0.22,Wunderground v.1.15,2013-02-12 16:40:00,
2013-02-12 11:44:00,32.8,24.1,29.57,West,265,6.0,16.0,70,0.00,,,0.22,Wunderground v.1.15,2013-02-12 16:44:00,
2013-02-12 11:45:00,32.8,24.1,29.57,ENE,75,5.0,16.0,70,0.00,,,0.22,Wunderground v.1.15,2013-02-12 16:45:00,
2013-02-12 11:46:00,32.8,24.1,29.57,ENE,71,2.0,16.0,70,0.00,,,0.22,Wunderground v.1.15,2013-02-12 16:46:00,
2013-02-12 11:49:00,32.8,24.4,29.57,ENE,68,3.0,16.0,71,0.00,,,0.22,Wunderground v.1.15,2013-02-12 16:49:00,
2013-02-12 11:50:00,32.8,24.4,29.57,NE,41,2.0,6.0,71,0.00,,,0.22,Wunderground v.1.15,2013-02-12 16:50:00,
2013-02-12 11:51:00,32.8,24.4,29.57,East,95,4.0,7.0,71,0.00,,,0.22,Wunderground v.1.15,2013-02-12 16:51:00,
2013-02-12 11:54:00,32.8,24.1,29.57,ENE,75,4.0,11.0,70,0.00,,,0.22,Wunderground v.1.15,2013-02-12 16:54:00,
2013-02-12 11:56:00,32.8,24.4,29.57,NE,41,6.0,11.0,71,0.00,,,0.22,Wunderground v.1.15,2013-02-12 16:56:00,
2013-02-12 12:01:00,32.8,24.4,29.57,ENE,68,7.0,11.0,71,0.00,,,0.22,Wunderground v.1.15,2013-02-12 17:01:00,
2013-02-12 12:02:00,32.8,24.4,29.57,ENE,61,13.0,13.0,71,0.00,,,0.22,Wunderground v.1.15,2013-02-12 17:02:00,
2013-02-12 12:06:00,32.9,24.2,29.57,South,171,5.0,13.0,70,0.00,,,0.22,Wunderground v.1.15,2013-02-12 17:06:00,
2013-02-12 12:07:00,32.9,24.5,29.57,SSW,195,3.0,13.0,71,0.00,,,0.22,Wunderground v.1.15,2013-02-12 17:07:00,
2013-02-12 12:08:00,32.9,24.2,29.57,ENE,68,6.0,13.0,70,0.00,,,0.22,Wunderground v.1.15,2013-02-12 17:08:00,
2013-02-12 12:11:00,33.1,24.7,29.57,ENE,65,10.0,14.0,71,0.00,,,0.22,Wunderground v.1.15,2013-02-12 17:11:00,
2013-02-12 12:12:00,33.1,24.4,29.57,East,86,14.0,14.0,70,0.00,,,0.22,Wunderground v.1.15,2013-02-12 17:12:00,
2013-02-12 12:16:00,33.4,24.7,29.57,ENE,65,4.0,14.0,70,0.00,,,0.22,Wunderground v.1.15,2013-02-12 17:16:00,
2013-02-12 12:17:00,33.4,24.7,29.57,SSE,147,3.0,14.0,70,0.00,,,0.22,Wunderground v.1.15,2013-02-12 17:17:00,
2013-02-12 12:18:00,33.4,24.3,29.57,ENE,71,7.0,16.0,69,0.00,,,0.22,Wunderground v.1.15,2013-02-12 17:18:00,
2013-02-12 12:21:00,33.5,24.8,29.57,ENE,68,10.0,16.0,70,0.00,,,0.22,Wunderground v.1.15,2013-02-12 17:21:00,
2013-02-12 12:22:00,33.5,24.4,29.57,East,86,7.0,16.0,69,0.00,,,0.22,Wunderground v.1.15,2013-02-12 17:22:00,
2013-02-12 12:23:00,33.7,24.6,29.57,NE,37,8.0,16.0,69,0.00,,,0.22,Wunderground v.1.15,2013-02-12 17:23:00,
2013-02-12 12:26:00,33.5,25.1,29.57,ENE,58,3.0,16.0,71,0.00,,,0.22,Wunderground v.1.15,2013-02-12 17:26:00,
2013-02-12 12:27:00,33.5,25.1,29.57,SSE,157,5.0,16.0,71,0.00,,,0.22,Wunderground v.1.15,2013-02-12 17:27:00,
2013-02-12 12:28:00,33.5,25.1,29.57,SSW,205,4.0,16.0,71,0.00,,,0.22,Wunderground v.1.15,2013-02-12 17:28:00,
2013-02-12 12:31:00,33.4,24.7,29.57,ENE,64,11.0,14.0,70,0.00,,,0.22,Wunderground v.1.15,2013-02-12 17:31:00,
2013-02-12 12:32:00,33.2,24.5,29.57,NNE,20,14.0,14.0,70,0.00,,,0.22,Wunderground v.1.15,2013-02-12 17:32:00,
2013-02-12 12:33:00,33.2,24.8,29.58,ENE,68,13.0,14.0,71,0.00,,,0.22,Wunderground v.1.15,2013-02-12 17:33:00,
2013-02-12 12:36:00,33.1,24.7,29.58,ENE,61,9.0,16.0,71,0.00,,,0.22,Wunderground v.1.15,2013-02-12 17:36:00,
2013-02-12 12:37:00,32.9,24.5,29.58,East,82,12.0,21.0,71,0.00,,,0.22,Wunderground v.1.15,2013-02-12 17:37:00,
2013-02-12 12:38:00,32.9,24.5,29.58,SE,134,5.0,21.0,71,0.00,,,0.22,Wunderground v.1.15,2013-02-12 17:38:00,
2013-02-12 12:41:00,33.1,24.7,29.58,NE,47,16.0,19.0,71,0.00,,,0.22,Wunderground v.1.15,2013-02-12 17:41:00,
2013-02-12 12:42:00,33.2,24.5,29.58,NE,34,3.0,19.0,70,0.00,,,0.22,Wunderground v.1.15,2013-02-12 17:42:00,
2013-02-12 12:43:00,33.2,24.8,29.58,ENE,64,10.0,19.0,71,0.00,,,0.22,Wunderground v.1.15,2013-02-12 17:43:00,
2013-02-12 12:44:00,33.2,24.8,29.58,ENE,65,8.0,19.0,71,0.00,,,0.22,Wunderground v.1.15,2013-02-12 17:44:00,
2013-02-12 12:47:00,33.4,25.0,29.58,NE,51,8.0,19.0,71,0.00,,,0.23,Wunderground v.1.15,2013-02-12 17:47:00,
2013-02-12 12:49:00,33.5,24.8,29.58,ENE,72,5.0,19.0,70,0.00,,,0.23,Wunderground v.1.15,2013-02-12 17:49:00,
2013-02-12 12:52:00,33.5,24.8,29.58,ESE,107,1.0,14.0,70,0.00,,,0.23,Wunderground v.1.15,2013-02-12 17:52:00,
2013-02-12 12:54:00,33.5,25.1,29.58,NE,51,4.0,14.0,71,0.00,,,0.23,Wunderground v.1.15,2013-02-12 17:54:00,
2013-02-12 12:58:00,34.0,25.2,29.58,NE,54,18.0,18.0,70,0.00,,,0.23,Wunderground v.1.15,2013-02-12 17:58:00,
2013-02-12 12:59:00,34.1,25.0,29.58,NE,40,10.0,18.0,69,0.00,,,0.23,Wunderground v.1.15,2013-02-12 17:59:00,
2013-02-12 13:00:00,34.0,24.9,29.58,ENE,58,6.0,7.0,69,0.00,,,0.23,Wunderground v.1.15,2013-02-12 18:00:00,
2013-02-12 13:03:00,33.8,25.0,29.58,NNE,20,6.0,25.0,70,0.00,,,0.23,Wunderground v.1.15,2013-02-12 18:03:00,
2013-02-12 13:05:00,33.8,24.7,29.58,ENE,68,6.0,25.0,69,0.00,,,0.23,Wunderground v.1.15,2013-02-12 18:05:00,
2013-02-12 13:08:00,33.7,25.3,29.58,NE,44,6.0,25.0,71,0.00,,,0.23,Wunderground v.1.15,2013-02-12 18:08:00,
2013-02-12 13:10:00,33.5,24.8,29.58,North,0,7.0,14.0,70,0.00,,,0.23,Wunderground v.1.15,2013-02-12 18:10:00,
2013-02-12 13:11:00,33.4,24.7,29.58,South,188,8.0,22.0,70,0.00,,,0.23,Wunderground v.1.15,2013-02-12 18:11:00,
2013-02-12 13:15:00,33.2,25.1,29.58,ENE,61,3.0,22.0,72,0.00,,,0.23,Wunderground v.1.15,2013-02-12 18:15:00,
2013-02-12 13:16:00,33.2,24.8,29.58,SE,138,6.0,22.0,71,0.00,,,0.23,Wunderground v.1.15,2013-02-12 18:16:00,
2013-02-12 13:20:00,33.2,25.1,29.59,ESE,110,5.0,8.0,72,0.00,,,0.23,Wunderground v.1.15,2013-02-12 18:20:00,
2013-02-12 13:21:00,33.1,24.7,29.59,ENE,72,10.0,10.0,71,0.00,,,0.23,Wunderground v.1.15,2013-02-12 18:21:00,
2013-02-12 13:25:00,33.1,25.1,29.59,South,172,10.0,17.0,72,0.00,,,0.23,Wunderground v.1.15,2013-02-12 18:25:00,
2013-02-12 13:26:00,32.9,24.5,29.59,ENE,65,8.0,17.0,71,0.00,,,0.23,Wunderground v.1.15,2013-02-12 18:26:00,
2013-02-12 13:27:00,32.9,24.5,29.59,SSW,208,6.0,17.0,71,0.00,,,0.23,Wunderground v.1.15,2013-02-12 18:27:00,
2013-02-12 13:31:00,32.9,24.9,29.59,ENE,65,10.0,10.0,72,0.00,,,0.23,Wunderground v.1.15,2013-02-12 18:31:00,
2013-02-12 13:32:00,32.9,24.5,29.59,South,188,5.0,10.0,71,0.00,,,0.23,Wunderground v.1.15,2013-02-12 18:32:00,
2013-02-12 13:33:00,32.9,24.9,29.59,NE,47,6.0,10.0,72,0.00,,,0.23,Wunderground v.1.15,2013-02-12 18:33:00,
2013-02-12 13:36:00,32.9,24.9,29.59,ENE,75,6.0,10.0,72,0.00,,,0.23,Wunderground v.1.15,2013-02-12 18:36:00,
2013-02-12 13:37:00,32.9,24.9,29.59,ENE,65,2.0,10.0,72,0.00,,,0.23,Wunderground v.1.15,2013-02-12 18:37:00,
2013-02-12 13:40:00,33.1,25.1,29.59,ENE,68,6.0,6.0,72,0.00,,,0.23,Wunderground v.1.15,2013-02-12 18:40:00,
2013-02-12 13:42:00,33.1,25.4,29.59,SSW,212,2.0,6.0,73,0.00,,,0.23,Wunderground v.1.15,2013-02-12 18:42:00,
2013-02-12 13:43:00,33.1,25.1,29.59,ENE,71,3.0,6.0,72,0.00,,,0.23,Wunderground v.1.15,2013-02-12 18:43:00,
2013-02-12 13:45:00,33.1,25.1,29.59,NNE,31,7.0,7.0,72,0.00,,,0.23,Wunderground v.1.15,2013-02-12 18:45:00,
2013-02-12 13:47:00,32.9,25.2,29.59,SSE,162,4.0,7.0,73,0.00,,,0.23,Wunderground v.1.15,2013-02-12 18:47:00,
2013-02-12 13:48:00,32.9,25.2,29.59,ENE,78,1.0,7.0,73,0.00,,,0.23,Wunderground v.1.15,2013-02-12 18:48:00,
2013-02-12 13:50:00,32.8,24.8,29.59,SW,229,2.0,3.0,72,0.00,,,0.23,Wunderground v.1.15,2013-02-12 18:50:00,
2013-02-12 13:53:00,32.8,24.8,29.59,ENE,58,4.0,6.0,72,0.00,,,0.23,Wunderground v.1.15,2013-02-12 18:53:00,
2013-02-12 13:54:00,32.8,24.8,29.59,ENE,61,1.0,6.0,72,0.00,,,0.23,Wunderground v.1.15,2013-02-12 18:54:00,
2013-02-12 13:56:00,32.8,24.8,29.59,East,79,4.0,11.0,72,0.00,,,0.23,Wunderground v.1.15,2013-02-12 18:56:00,
2013-02-12 13:58:00,32.7,24.7,29.59,ENE,58,2.0,11.0,72,0.00,,,0.23,Wunderground v.1.15,2013-02-12 18:58:00,
2013-02-12 13:59:00,32.7,24.7,29.59,NE,44,3.0,11.0,72,0.00,,,0.23,Wunderground v.1.15,2013-02-12 18:59:00,
2013-02-12 14:02:00,32.7,24.7,29.59,SSE,147,0.0,9.0,72,0.00,,,0.23,Wunderground v.1.15,2013-02-12 19:02:00,
2013-02-12 14:04:00,32.8,24.8,29.59,ENE,65,3.0,9.0,72,0.00,,,0.23,Wunderground v.1.15,2013-02-12 19:04:00,
2013-02-12 14:05:00,32.8,24.8,29.59,NNE,24,3.0,9.0,72,0.00,,,0.23,Wunderground v.1.15,2013-02-12 19:05:00,
2013-02-12 14:08:00,32.8,24.8,29.59,ENE,78,5.0,10.0,72,0.00,,,0.23,Wunderground v.1.15,2013-02-12 19:08:00,
2013-02-12 14:09:00,32.8,24.8,29.59,ENE,58,5.0,10.0,72,0.00,,,0.23,Wunderground v.1.15,2013-02-12 19:09:00,
2013-02-12 14:10:00,32.8,24.8,29.59,ESE,120,5.0,7.0,72,0.00,,,0.23,Wunderground v.1.15,2013-02-12 19:10:00,
2013-02-12 14:12:00,32.8,25.1,29.59,ENE,65,3.0,7.0,73,0.00,,,0.23,Wunderground v.1.15,2013-02-12 19:12:00,
2013-02-12 14:14:00,32.8,25.1,29.59,ENE,58,13.0,13.0,73,0.00,,,0.23,Wunderground v.1.15,2013-02-12 19:14:00,
2013-02-12 14:16:00,32.8,24.4,29.59,SSE,167,5.0,15.0,71,0.00,,,0.23,Wunderground v.1.15,2013-02-12 19:16:00,
2013-02-12 14:17:00,32.8,24.8,29.59,NNE,27,3.0,15.0,72,0.00,,,0.23,Wunderground v.1.15,2013-02-12 19:17:00,
2013-02-12 14:19:00,32.8,24.8,29.60,ENE,78,5.0,15.0,72,0.00,,,0.23,Wunderground v.1.15,2013-02-12 19:19:00,
2013-02-12 14:21:00,32.8,24.8,29.60,ENE,71,7.0,7.0,72,0.00,,,0.23,Wunderground v.1.15,2013-02-12 19:21:00,
2013-02-12 14:22:00,32.9,24.5,29.60,ENE,68,3.0,12.0,71,0.00,,,0.23,Wunderground v.1.15,2013-02-12 19:22:00,
2013-02-12 14:25:00,32.8,24.4,29.60,NE,51,13.0,17.0,71,0.00,,,0.23,Wunderground v.1.15,2013-02-12 19:25:00,
2013-02-12 14:26:00,32.8,24.4,29.60,ENE,62,5.0,17.0,71,0.00,,,0.23,Wunderground v.1.15,2013-02-12 19:26:00,
2013-02-12 14:27:00,32.8,24.4,29.60,ESE,119,3.0,17.0,71,0.00,,,0.23,Wunderground v.1.15,2013-02-12 19:27:00,
2013-02-12 14:30:00,32.8,24.8,29.60,ENE,72,4.0,6.0,72,0.00,,,0.23,Wunderground v.1.15,2013-02-12 19:30:00,
2013-02-12 14:31:00,32.8,24.8,29.60,NNE,17,5.0,6.0,72,0.00,,,0.23,Wunderground v.1.15,2013-02-12 19:31:00,
2013-02-12 14:32:00,32.8,24.8,29.60,East,89,2.0,8.0,72,0.00,,,0.23,Wunderground v.1.15,2013-02-12 19:32:00,
2013-02-12 14:35:00,32.8,24.4,29.61,ENE,72,5.0,8.0,71,0.00,,,0.23,Wunderground v.1.15,2013-02-12 19:35:00,
2013-02-12 14:36:00,32.8,24.4,29.61,NE,55,5.0,8.0,71,0.00,,,0.23,Wunderground v.1.15,2013-02-12 19:36:00,
2013-02-12 14:37:00,32.8,24.4,29.61,North,350,2.0,8.0,71,0.00,,,0.23,Wunderground v.1.15,2013-02-12 19:37:00,
2013-02-12 14:41:00,32.7,24.0,29.61,ESE,103,2.0,11.0,70,0.00,,,0.23,Wunderground v.1.15,2013-02-12 19:41:00,
2013-02-12 14:42:00,32.7,24.3,29.61,ENE,75,2.0,11.0,71,0.00,,,0.23,Wunderground v.1.15,2013-02-12 19:42:00,
2013-02-12 14:43:00,32.8,24.4,29.61,ENE,64,3.0,11.0,71,0.00,,,0.23,Wunderground v.1.15,2013-02-12 19:43:00,
2013-02-12 14:47:00,32.7,24.3,29.61,ENE,69,5.0,11.0,71,0.00,,,0.23,Wunderground v.1.15,2013-02-12 19:47:00,
2013-02-12 14:49:00,32.7,24.3,29.62,ENE,71,5.0,11.0,71,0.00,,,0.23,Wunderground v.1.15,2013-02-12 19:49:00,
2013-02-12 14:50:00,32.7,24.3,29.62,ENE,69,3.0,6.0,71,0.00,,,0.23,Wunderground v.1.15,2013-02-12 19:50:00,
2013-02-12 14:53:00,32.7,24.7,29.62,ENE,68,6.0,7.0,72,0.00,,,0.23,Wunderground v.1.15,2013-02-12 19:53:00,
2013-02-12 14:55:00,32.7,24.3,29.62,NE,51,4.0,8.0,71,0.00,,,0.23,Wunderground v.1.15,2013-02-12 19:55:00,
2013-02-12 14:56:00,32.7,24.7,29.62,ENE,58,6.0,8.0,72,0.00,,,0.23,Wunderground v.1.15,2013-02-12 19:56:00,
2013-02-12 14:58:00,32.7,24.7,29.62,ENE,58,4.0,8.0,72,0.00,,,0.23,Wunderground v.1.15,2013-02-12 19:58:00,
2013-02-12 15:01:00,32.5,24.1,29.62,NNE,23,4.0,10.0,71,0.00,,,0.23,Wunderground v.1.15,2013-02-12 20:01:00,
2013-02-12 15:02:00,32.5,24.5,29.62,ESE,102,0.0,10.0,72,0.00,,,0.23,Wunderground v.1.15,2013-02-12 20:02:00,
2013-02-12 15:04:00,32.5,24.5,29.63,ENE,65,3.0,10.0,72,0.00,,,0.23,Wunderground v.1.15,2013-02-12 20:04:00,
2013-02-12 15:06:00,32.5,24.5,29.63,ENE,65,3.0,10.0,72,0.00,,,0.23,Wunderground v.1.15,2013-02-12 20:06:00,
2013-02-12 15:07:00,32.5,24.5,29.63,East,79,5.0,10.0,72,0.00,,,0.23,Wunderground v.1.15,2013-02-12 20:07:00,
2013-02-12 15:09:00,32.5,24.8,29.63,WSW,237,0.0,12.0,73,0.00,,,0.23,Wunderground v.1.15,2013-02-12 20:09:00,
2013-02-12 15:10:00,32.5,24.8,29.63,ENE,58,11.0,11.0,73,0.00,,,0.23,Wunderground v.1.15,2013-02-12 20:10:00,
2013-02-12 15:12:00,32.4,24.7,29.63,ENE,62,11.0,12.0,73,0.00,,,0.23,Wunderground v.1.15,2013-02-12 20:12:00,
2013-02-12 15:14:00,32.2,24.8,29.63,ENE,64,7.0,12.0,74,0.00,,,0.23,Wunderground v.1.15,2013-02-12 20:14:00,
2013-02-12 15:15:00,32.2,25.2,29.63,East,89,5.0,12.0,75,0.00,,,0.23,Wunderground v.1.15,2013-02-12 20:15:00,
2013-02-12 15:18:00,32.1,25.4,29.63,ENE,75,7.0,12.0,76,0.00,,,0.23,Wunderground v.1.15,2013-02-12 20:18:00,
2013-02-12 15:19:00,32.1,25.4,29.63,South,191,7.0,12.0,76,0.00,,,0.23,Wunderground v.1.15,2013-02-12 20:19:00,
2013-02-12 15:20:00,31.9,25.2,29.63,SE,140,6.0,7.0,76,0.00,,,0.23,Wunderground v.1.15,2013-02-12 20:20:00,
2013-02-12 15:24:00,31.9,25.8,29.63,NE,54,8.0,10.0,78,0.00,,,0.23,Wunderground v.1.15,2013-02-12 20:24:00,
2013-02-12 15:25:00,31.8,25.4,29.63,ENE,58,6.0,12.0,77,0.00,,,0.23,Wunderground v.1.15,2013-02-12 20:25:00,
2013-02-12 15:26:00,31.8,25.4,29.63,NE,41,7.0,12.0,77,0.00,,,0.23,Wunderground v.1.15,2013-02-12 20:26:00,
2013-02-12 15:30:00,31.6,25.5,29.63,NE,51,4.0,5.0,78,0.00,,,0.23,Wunderground v.1.15,2013-02-12 20:30:00,
2013-02-12 15:31:00,31.6,25.8,29.63,North,349,3.0,7.0,79,0.00,,,0.23,Wunderground v.1.15,2013-02-12 20:31:00,
2013-02-12 15:35:00,31.5,25.4,29.63,SSW,206,6.0,11.0,78,0.00,,,0.23,Wunderground v.1.15,2013-02-12 20:35:00,
2013-02-12 15:36:00,31.5,25.4,29.63,SSW,192,2.0,11.0,78,0.00,,,0.23,Wunderground v.1.15,2013-02-12 20:36:00,
2013-02-12 15:37:00,31.5,25.4,29.63,SSW,192,1.0,11.0,78,0.00,,,0.23,Wunderground v.1.15,2013-02-12 20:37:00,
2013-02-12 15:42:00,31.5,25.7,29.63,SSW,205,2.0,6.0,79,0.00,,,0.23,Wunderground v.1.15,2013-02-12 20:42:00,
2013-02-12 15:43:00,31.5,25.7,29.63,ENE,61,2.0,6.0,79,0.00,,,0.23,Wunderground v.1.15,2013-02-12 20:43:00,
2013-02-12 15:47:00,31.5,25.4,29.63,ENE,58,8.0,9.0,78,0.00,,,0.23,Wunderground v.1.15,2013-02-12 20:47:00,
2013-02-12 15:48:00,31.5,25.4,29.63,ENE,58,2.0,12.0,78,0.00,,,0.23,Wunderground v.1.15,2013-02-12 20:48:00,
2013-02-12 15:52:00,31.5,25.4,29.63,NE,55,6.0,7.0,78,0.00,,,0.23,Wunderground v.1.15,2013-02-12 20:52:00,
2013-02-12 15:53:00,31.5,25.7,29.63,NNE,31,2.0,8.0,79,0.00,,,0.23,Wunderground v.1.15,2013-02-12 20:53:00,
2013-02-12 15:54:00,31.5,25.7,29.63,ENE,78,9.0,9.0,79,0.00,,,0.23,Wunderground v.1.15,2013-02-12 20:54:00,
2013-02-12 15:57:00,31.5,25.1,29.63,SSE,160,6.0,13.0,77,0.00,,,0.23,Wunderground v.1.15,2013-02-12 20:57:00,
2013-02-12 15:58:00,31.5,25.1,29.63,NE,51,3.0,13.0,77,0.00,,,0.23,Wunderground v.1.15,2013-02-12 20:58:00,
2013-02-12 16:00:00,31.5,25.4,29.63,ENE,64,3.0,5.0,78,0.00,,,0.23,Wunderground v.1.15,2013-02-12 21:00:00,
2013-02-12 16:01:00,31.5,25.4,29.63,North,10,6.0,6.0,78,0.00,,,0.23,Wunderground v.1.15,2013-02-12 21:01:00,
2013-02-12 16:03:00,31.5,25.1,29.63,ENE,71,0.0,6.0,77,0.00,,,0.23,Wunderground v.1.15,2013-02-12 21:03:00,
2013-02-12 16:05:00,31.6,25.2,29.63,ENE,65,2.0,6.0,77,0.00,,,0.23,Wunderground v.1.15,2013-02-12 21:05:00,
2013-02-12 16:07:00,31.6,25.5,29.63,NE,37,2.0,6.0,78,0.00,,,0.23,Wunderground v.1.15,2013-02-12 21:07:00,
2013-02-12 16:08:00,31.6,25.2,29.63,NE,41,5.0,6.0,77,0.00,,,0.23,Wunderground v.1.15,2013-02-12 21:08:00,
2013-02-12 16:09:00,31.6,25.2,29.63,NNE,24,2.0,6.0,77,0.00,,,0.23,Wunderground v.1.15,2013-02-12 21:09:00,
2013-02-12 16:11:00,31.6,24.9,29.63,ENE,75,6.0,17.0,76,0.00,,,0.23,Wunderground v.1.15,2013-02-12 21:11:00,
2013-02-12 16:12:00,31.8,24.8,29.63,ENE,69,7.0,17.0,75,0.00,,,0.23,Wunderground v.1.15,2013-02-12 21:12:00,
2013-02-12 16:13:00,31.8,24.8,29.63,ENE,65,10.0,17.0,75,0.00,,,0.23,Wunderground v.1.15,2013-02-12 21:13:00,
2013-02-12 16:14:00,31.8,24.8,29.63,ENE,61,10.0,17.0,75,0.00,,,0.23,Wunderground v.1.15,2013-02-12 21:14:00,
2013-02-12 16:17:00,31.8,24.8,29.63,ENE,65,6.0,17.0,75,0.00,,,0.23,Wunderground v.1.15,2013-02-12 21:17:00,
2013-02-12 16:18:00,31.8,24.8,29.63,ENE,71,8.0,17.0,75,0.00,,,0.23,Wunderground v.1.15,2013-02-12 21:18:00,
2013-02-12 16:21:00,31.6,24.9,29.63,East,79,5.0,13.0,76,0.00,,,0.23,Wunderground v.1.15,2013-02-12 21:21:00,
2013-02-12 16:22:00,31.6,24.9,29.63,WNW,295,7.0,13.0,76,0.00,,,0.23,Wunderground v.1.15,2013-02-12 21:22:00,
2013-02-12 16:23:00,31.5,25.1,29.63,South,188,3.0,13.0,77,0.00,,,0.23,Wunderground v.1.15,2013-02-12 21:23:00,
2013-02-12 16:26:00,31.5,25.1,29.63,ENE,64,5.0,13.0,77,0.00,,,0.23,Wunderground v.1.15,2013-02-12 21:26:00,
2013-02-12 16:27:00,31.5,25.1,29.63,ENE,62,5.0,13.0,77,0.00,,,0.23,Wunderground v.1.15,2013-02-12 21:27:00,
2013-02-12 16:29:00,31.5,25.1,29.63,South,179,6.0,13.0,77,0.00,,,0.23,Wunderground v.1.15,2013-02-12 21:29:00,
2013-02-12 16:30:00,31.5,25.1,29.63,South,171,6.0,6.0,77,0.00,,,0.23,Wunderground v.1.15,2013-02-12 21:30:00,
2013-02-12 16:31:00,31.5,25.1,29.63,NE,34,2.0,10.0,77,0.00,,,0.23,Wunderground v.1.15,2013-02-12 21:31:00,
2013-02-12 16:33:00,31.5,25.1,29.63,NNE,13,2.0,10.0,77,0.00,,,0.23,Wunderground v.1.15,2013-02-12 21:33:00,
2013-02-12 16:35:00,31.5,24.5,29.63,NE,55,6.0,13.0,75,0.00,,,0.23,Wunderground v.1.15,2013-02-12 21:35:00,
2013-02-12 16:36:00,31.5,24.5,29.63,NW,309,5.0,13.0,75,0.00,,,0.23,Wunderground v.1.15,2013-02-12 21:36:00,
2013-02-12 16:38:00,31.5,24.8,29.63,SSW,205,5.0,13.0,76,0.00,,,0.23,Wunderground v.1.15,2013-02-12 21:38:00,
2013-02-12 16:41:00,31.5,24.8,29.63,ENE,64,2.0,7.0,76,0.00,,,0.23,Wunderground v.1.15,2013-02-12 21:41:00,
2013-02-12 16:42:00,31.5,24.8,29.63,East,82,2.0,7.0,76,0.00,,,0.23,Wunderground v.1.15,2013-02-12 21:42:00,
2013-02-12 16:43:00,31.5,24.5,29.63,ENE,69,3.0,7.0,75,0.00,,,0.23,Wunderground v.1.15,2013-02-12 21:43:00,
2013-02-12 16:46:00,31.5,24.8,29.63,SSE,148,1.0,10.0,76,0.00,,,0.23,Wunderground v.1.15,2013-02-12 21:46:00,
2013-02-12 16:47:00,31.5,24.8,29.63,NE,55,5.0,10.0,76,0.00,,,0.23,Wunderground v.1.15,2013-02-12 21:47:00,
2013-02-12 16:48:00,31.5,24.5,29.63,ENE,64,6.0,13.0,75,0.00,,,0.23,Wunderground v.1.15,2013-02-12 21:48:00,
2013-02-12 16:49:00,31.5,24.5,29.63,ENE,72,4.0,13.0,75,0.00,,,0.23,Wunderground v.1.15,2013-02-12 21:49:00,
2013-02-12 16:51:00,31.5,24.5,29.63,NE,48,4.0,8.0,75,0.00,,,0.23,Wunderground v.1.15,2013-02-12 21:51:00,
2013-02-12 16:52:00,31.5,24.5,29.63,ENE,62,6.0,8.0,75,0.00,,,0.23,Wunderground v.1.15,2013-02-12 21:52:00,
2013-02-12 16:53:00,31.5,24.5,29.63,NE,40,0.0,8.0,75,0.00,,,0.23,Wunderground v.1.15,2013-02-12 21:53:00,
2013-02-12 16:54:00,31.5,24.5,29.63,ENE,62,4.0,8.0,75,0.00,,,0.23,Wunderground v.1.15,2013-02-12 21:54:00,
2013-02-12 16:56:00,31.5,24.5,29.63,ENE,68,5.0,8.0,75,0.00,,,0.23,Wunderground v.1.15,2013-02-12 21:56:00,
2013-02-12 16:58:00,31.3,24.6,29.63,ENE,68,1.0,8.0,76,0.00,,,0.23,Wunderground v.1.15,2013-02-12 21:58:00,
2013-02-12 17:00:00,31.3,24.3,29.63,NE,41,5.0,5.0,75,0.00,,,0.23,Wunderground v.1.15,2013-02-12 22:00:00,
2013-02-12 17:03:00,31.3,24.6,29.65,SE,136,1.0,6.0,76,0.00,,,0.23,Wunderground v.1.15,2013-02-12 22:03:00,
2013-02-12 17:04:00,31.3,24.6,29.65,SE,138,1.0,6.0,76,0.00,,,0.23,Wunderground v.1.15,2013-02-12 22:04:00,
2013-02-12 17:05:00,31.3,24.6,29.65,ENE,72,7.0,10.0,76,0.00,,,0.23,Wunderground v.1.15,2013-02-12 22:05:00,
2013-02-12 17:09:00,31.3,24.6,29.65,ENE,68,3.0,10.0,76,0.00,,,0.23,Wunderground v.1.15,2013-02-12 22:09:00,
2013-02-12 17:10:00,31.3,24.6,29.65,ENE,65,6.0,6.0,76,0.00,,,0.23,Wunderground v.1.15,2013-02-12 22:10:00,
2013-02-12 17:14:00,31.2,24.8,29.65,ENE,64,4.0,10.0,77,0.00,,,0.23,Wunderground v.1.15,2013-02-12 22:14:00,
2013-02-12 17:15:00,31.2,24.8,29.65,SSW,202,2.0,10.0,77,0.00,,,0.23,Wunderground v.1.15,2013-02-12 22:15:00,
2013-02-12 17:18:00,31.0,24.9,29.65,East,82,1.0,10.0,78,0.00,,,0.23,Wunderground v.1.15,2013-02-12 22:18:00,
2013-02-12 17:20:00,31.0,24.9,29.65,SW,226,4.0,5.0,78,0.00,,,0.00,Wunderground v.1.15,2013-02-12 22:20:00,
2013-02-12 17:21:00,30.9,24.8,29.65,NNE,31,2.0,5.0,78,0.00,,,0.00,Wunderground v.1.15,2013-02-12 22:21:00,
2013-02-12 17:23:00,30.9,25.2,29.65,ENE,75,2.0,5.0,79,0.00,,,0.00,Wunderground v.1.15,2013-02-12 22:23:00,
2013-02-12 17:25:00,30.7,25.0,29.65,ENE,71,2.0,5.0,79,0.00,,,0.00,Wunderground v.1.15,2013-02-12 22:25:00,
2013-02-12 17:26:00,30.7,25.0,29.65,ENE,72,2.0,5.0,79,0.00,,,0.00,Wunderground v.1.15,2013-02-12 22:26:00,
2013-02-12 17:27:00,30.7,25.3,29.65,ENE,62,7.0,7.0,80,0.00,,,0.00,Wunderground v.1.15,2013-02-12 22:27:00,
2013-02-12 17:29:00,30.6,24.9,29.65,ENE,68,3.0,7.0,79,0.00,,,0.00,Wunderground v.1.15,2013-02-12 22:29:00,
2013-02-12 17:31:00,30.6,24.9,29.65,East,82,2.0,8.0,79,0.00,,,0.00,Wunderground v.1.15,2013-02-12 22:31:00,
2013-02-12 17:33:00,30.6,25.2,29.65,NE,44,4.0,8.0,80,0.00,,,0.00,Wunderground v.1.15,2013-02-12 22:33:00,
2013-02-12 17:34:00,30.6,24.9,29.65,ENE,78,0.0,8.0,79,0.00,,,0.00,Wunderground v.1.15,2013-02-12 22:34:00,
2013-02-12 17:36:00,30.6,25.2,29.65,East,89,3.0,8.0,80,0.00,,,0.00,Wunderground v.1.15,2013-02-12 22:36:00,
2013-02-12 17:38:00,30.6,25.2,29.65,ENE,64,2.0,8.0,80,0.00,,,0.00,Wunderground v.1.15,2013-02-12 22:38:00,
2013-02-12 17:40:00,30.4,25.0,29.65,ENE,65,2.0,2.0,80,0.00,,,0.00,Wunderground v.1.15,2013-02-12 22:40:00,
2013-02-12 17:41:00,30.4,25.0,29.65,SSE,165,7.0,7.0,80,0.00,,,0.00,Wunderground v.1.15,2013-02-12 22:41:00,
2013-02-12 17:43:00,30.4,25.0,29.65,East,79,2.0,7.0,80,0.00,,,0.00,Wunderground v.1.15,2013-02-12 22:43:00,
2013-02-12 17:45:00,30.4,25.0,29.65,ENE,61,3.0,7.0,80,0.00,,,0.00,Wunderground v.1.15,2013-02-12 22:45:00,
2013-02-12 17:46:00,30.4,25.0,29.65,ENE,64,5.0,7.0,80,0.00,,,0.00,Wunderground v.1.15,2013-02-12 22:46:00,
2013-02-12 17:48:00,30.4,25.0,29.67,ENE,68,1.0,7.0,80,0.00,,,0.00,Wunderground v.1.15,2013-02-12 22:48:00,
2013-02-12 17:50:00,30.3,25.2,29.67,NE,37,5.0,7.0,81,0.00,,,0.00,Wunderground v.1.15,2013-02-12 22:50:00,
2013-02-12 17:51:00,30.3,24.9,29.67,ESE,113,1.0,8.0,80,0.00,,,0.00,Wunderground v.1.15,2013-02-12 22:51:00,
2013-02-12 17:53:00,30.3,24.6,29.67,ENE,64,1.0,11.0,79,0.00,,,0.00,Wunderground v.1.15,2013-02-12 22:53:00,
2013-02-12 17:55:00,30.3,24.6,29.67,ENE,75,0.0,11.0,79,0.00,,,0.00,Wunderground v.1.15,2013-02-12 22:55:00,
2013-02-12 17:57:00,30.1,24.7,29.67,South,181,2.0,11.0,80,0.00,,,0.00,Wunderground v.1.15,2013-02-12 22:57:00,
2013-02-12 17:59:00,30.1,24.4,29.67,ENE,61,4.0,11.0,79,0.00,,,0.00,Wunderground v.1.15,2013-02-12 22:59:00,
2013-02-12 18:00:00,30.0,24.6,29.67,ENE,61,1.0,3.0,80,0.00,,,0.00,Wunderground v.1.15,2013-02-12 23:00:00,
2013-02-12 18:02:00,30.0,24.0,29.67,NE,34,6.0,6.0,78,0.00,,,0.00,Wunderground v.1.15,2013-02-12 23:02:00,
2013-02-12 18:03:00,30.0,24.0,29.66,NE,37,4.0,6.0,78,0.00,,,0.00,Wunderground v.1.15,2013-02-12 23:03:00,
2013-02-12 18:04:00,29.8,23.8,29.66,NE,55,2.0,8.0,78,0.00,,,0.00,Wunderground v.1.15,2013-02-12 23:04:00,
2013-02-12 18:06:00,29.8,24.1,29.66,SSE,151,3.0,8.0,79,0.00,,,0.00,Wunderground v.1.15,2013-02-12 23:06:00,
2013-02-12 18:08:00,29.8,23.8,29.66,SE,143,1.0,8.0,78,0.00,,,0.00,Wunderground v.1.15,2013-02-12 23:08:00,
2013-02-12 18:11:00,29.7,23.7,29.66,NE,47,10.0,10.0,78,0.00,,,0.00,Wunderground v.1.15,2013-02-12 23:11:00,
2013-02-12 18:12:00,29.7,23.7,29.66,NE,37,8.0,11.0,78,0.00,,,0.00,Wunderground v.1.15,2013-02-12 23:12:00,
2013-02-12 18:13:00,29.7,23.7,29.66,ENE,71,1.0,13.0,78,0.00,,,0.00,Wunderground v.1.15,2013-02-12 23:13:00,
2013-02-12 18:14:00,29.7,24.0,29.66,NE,41,1.0,13.0,79,0.00,,,0.00,Wunderground v.1.15,2013-02-12 23:14:00,
2013-02-12 18:17:00,29.7,24.0,29.66,NE,44,3.0,13.0,79,0.00,,,0.00,Wunderground v.1.15,2013-02-12 23:17:00,
2013-02-12 18:18:00,29.5,23.8,29.66,NE,51,5.0,13.0,79,0.00,,,0.00,Wunderground v.1.15,2013-02-12 23:18:00,
2013-02-12 18:19:00,29.5,23.8,29.66,ENE,65,0.0,13.0,79,0.00,,,0.00,Wunderground v.1.15,2013-02-12 23:19:00,
2013-02-12 18:22:00,29.5,24.1,29.66,South,181,5.0,5.0,80,0.00,,,0.00,Wunderground v.1.15,2013-02-12 23:22:00,
2013-02-12 18:24:00,29.4,23.7,29.66,NNE,24,3.0,5.0,79,0.00,,,0.00,Wunderground v.1.15,2013-02-12 23:24:00,
2013-02-12 18:27:00,29.4,23.7,29.66,East,82,4.0,7.0,79,0.00,,,0.00,Wunderground v.1.15,2013-02-12 23:27:00,
2013-02-12 18:28:00,29.4,23.7,29.66,East,82,1.0,7.0,79,0.00,,,0.00,Wunderground v.1.15,2013-02-12 23:28:00,
2013-02-12 18:29:00,29.4,23.7,29.66,East,82,3.0,7.0,79,0.00,,,0.00,Wunderground v.1.15,2013-02-12 23:29:00,
2013-02-12 18:33:00,29.4,23.7,29.67,ENE,65,1.0,10.0,79,0.00,,,0.00,Wunderground v.1.15,2013-02-12 23:33:00,
2013-02-12 18:35:00,29.4,23.4,29.67,NE,51,3.0,10.0,78,0.00,,,0.00,Wunderground v.1.15,2013-02-12 23:35:00,
2013-02-12 18:38:00,29.4,23.4,29.67,NE,41,2.0,10.0,78,0.00,,,0.00,Wunderground v.1.15,2013-02-12 23:38:00,
2013-02-12 18:40:00,29.4,23.4,29.67,NE,55,6.0,6.0,78,0.00,,,0.00,Wunderground v.1.15,2013-02-12 23:40:00,
2013-02-12 18:41:00,29.4,23.4,29.67,South,181,1.0,7.0,78,0.00,,,0.00,Wunderground v.1.15,2013-02-12 23:41:00,
2013-02-12 18:44:00,29.4,23.4,29.67,ENE,65,1.0,7.0,78,0.00,,,0.00,Wunderground v.1.15,2013-02-12 23:44:00,
2013-02-12 18:46:00,29.4,23.4,29.67,ENE,71,1.0,7.0,78,0.00,,,0.00,Wunderground v.1.15,2013-02-12 23:46:00,
2013-02-12 18:51:00,29.4,23.4,29.68,ENE,75,3.0,3.0,78,0.00,,,0.00,Wunderground v.1.15,2013-02-12 23:51:00,
2013-02-12 18:52:00,29.4,23.4,29.68,West,278,3.0,6.0,78,0.00,,,0.00,Wunderground v.1.15,2013-02-12 23:52:00,
2013-02-12 18:53:00,29.4,23.1,29.68,South,182,1.0,6.0,77,0.00,,,0.00,Wunderground v.1.15,2013-02-12 23:53:00,
2013-02-12 18:56:00,29.4,23.4,29.68,ENE,61,2.0,6.0,78,0.00,,,0.00,Wunderground v.1.15,2013-02-12 23:56:00,
2013-02-12 18:57:00,29.4,23.1,29.68,SSE,164,2.0,6.0,77,0.00,,,0.00,Wunderground v.1.15,2013-02-12 23:57:00,
2013-02-12 18:58:00,29.4,23.1,29.68,SW,217,2.0,6.0,77,0.00,,,0.00,Wunderground v.1.15,2013-02-12 23:58:00,
2013-02-12 19:01:00,29.4,23.4,29.68,SW,217,1.0,2.0,78,0.00,,,0.00,Wunderground v.1.15,2013-02-13 00:01:00,
2013-02-12 19:02:00,29.4,23.4,29.68,SSE,148,1.0,6.0,78,0.00,,,0.00,Wunderground v.1.15,2013-02-13 00:02:00,
2013-02-12 19:04:00,29.4,23.4,29.68,SSE,148,1.0,6.0,78,0.00,,,0.00,Wunderground v.1.15,2013-02-13 00:04:00,
2013-02-12 19:06:00,29.4,23.1,29.68,ENE,58,2.0,6.0,77,0.00,,,0.00,Wunderground v.1.15,2013-02-13 00:06:00,
2013-02-12 19:07:00,29.4,23.1,29.68,East,86,2.0,7.0,77,0.00,,,0.00,Wunderground v.1.15,2013-02-13 00:07:00,
2013-02-12 19:09:00,29.4,23.1,29.68,NE,44,1.0,7.0,77,0.00,,,0.00,Wunderground v.1.15,2013-02-13 00:09:00,
2013-02-12 19:11:00,29.4,22.8,29.68,East,88,1.0,3.0,76,0.00,,,0.00,Wunderground v.1.15,2013-02-13 00:11:00,
2013-02-12 19:12:00,29.5,22.9,29.68,ENE,58,6.0,7.0,76,0.00,,,0.00,Wunderground v.1.15,2013-02-13 00:12:00,
2013-02-12 19:13:00,29.5,22.9,29.68,ENE,68,8.0,8.0,76,0.00,,,0.00,Wunderground v.1.15,2013-02-13 00:13:00,
2013-02-12 19:14:00,29.5,22.9,29.68,SSW,206,2.0,8.0,76,0.00,,,0.00,Wunderground v.1.15,2013-02-13 00:14:00,
2013-02-12 19:16:00,29.5,22.9,29.68,East,93,2.0,8.0,76,0.00,,,0.00,Wunderground v.1.15,2013-02-13 00:16:00,
2013-02-12 19:17:00,29.5,22.6,29.68,East,93,1.0,8.0,75,0.00,,,0.00,Wunderground v.1.15,2013-02-13 00:17:00,
2013-02-12 19:19:00,29.5,22.9,29.69,NE,51,1.0,8.0,76,0.00,,,0.00,Wunderground v.1.15,2013-02-13 00:19:00,
2013-02-12 19:22:00,29.5,22.9,29.69,ENE,71,1.0,3.0,76,0.00,,,0.00,Wunderground v.1.15,2013-02-13 00:22:00,
2013-02-12 19:24:00,29.5,22.9,29.69,SSE,150,3.0,3.0,76,0.00,,,0.00,Wunderground v.1.15,2013-02-13 00:24:00,
2013-02-12 19:27:00,29.5,22.9,29.69,SSW,202,3.0,6.0,76,0.00,,,0.00,Wunderground v.1.15,2013-02-13 00:27:00,
2013-02-12 19:28:00,29.5,22.9,29.69,SSW,200,0.0,6.0,76,0.00,,,0.00,Wunderground v.1.15,2013-02-13 00:28:00,
2013-02-12 19:31:00,29.5,22.6,29.69,ENE,65,3.0,3.0,75,0.00,,,0.00,Wunderground v.1.15,2013-02-13 00:31:00,
2013-02-12 19:32:00,29.5,22.9,29.69,NNE,27,4.0,6.0,76,0.00,,,0.00,Wunderground v.1.15,2013-02-13 00:32:00,
2013-02-12 19:33:00,29.5,22.6,29.69,ESE,103,2.0,13.0,75,0.00,,,0.00,Wunderground v.1.15,2013-02-13 00:33:00,
2013-02-12 19:34:00,29.5,22.9,29.69,East,85,3.0,13.0,76,0.00,,,0.00,Wunderground v.1.15,2013-02-13 00:34:00,
2013-02-12 19:36:00,29.5,22.9,29.69,East,85,2.0,13.0,76,0.00,,,0.00,Wunderground v.1.15,2013-02-13 00:36:00,
2013-02-12 19:38:00,29.4,22.8,29.69,SSE,158,2.0,13.0,76,0.00,,,0.00,Wunderground v.1.15,2013-02-13 00:38:00,
2013-02-12 19:39:00,29.4,22.8,29.69,SSE,155,2.0,13.0,76,0.00,,,0.00,Wunderground v.1.15,2013-02-13 00:39:00,
2013-02-12 19:40:00,29.4,22.8,29.69,NNE,23,5.0,9.0,76,0.00,,,0.00,Wunderground v.1.15,2013-02-13 00:40:00,
2013-02-12 19:42:00,29.4,22.8,29.69,South,172,1.0,9.0,76,0.00,,,0.00,Wunderground v.1.15,2013-02-13 00:42:00,
2013-02-12 19:43:00,29.4,22.8,29.69,ENE,58,3.0,9.0,76,0.00,,,0.00,Wunderground v.1.15,2013-02-13 00:43:00,
2013-02-12 19:45:00,29.4,22.8,29.69,ENE,58,0.0,9.0,76,0.00,,,0.00,Wunderground v.1.15,2013-02-13 00:45:00,
2013-02-12 19:46:00,29.4,22.8,29.69,ENE,58,1.0,9.0,76,0.00,,,0.00,Wunderground v.1.15,2013-02-13 00:46:00,
2013-02-12 19:47:00,29.4,23.1,29.69,ENE,69,0.0,9.0,77,0.00,,,0.00,Wunderground v.1.15,2013-02-13 00:47:00,
2013-02-12 19:50:00,29.4,23.1,29.70,South,174,3.0,3.0,77,0.00,,,0.00,Wunderground v.1.15,2013-02-13 00:50:00,
2013-02-12 19:51:00,29.4,23.1,29.70,SSW,192,2.0,6.0,77,0.00,,,0.00,Wunderground v.1.15,2013-02-13 00:51:00,
2013-02-12 19:52:00,29.4,23.1,29.70,ENE,65,3.0,6.0,77,0.00,,,0.00,Wunderground v.1.15,2013-02-13 00:52:00,
2013-02-12 19:55:00,29.3,22.7,29.70,NE,51,0.0,6.0,76,0.00,,,0.00,Wunderground v.1.15,2013-02-13 00:55:00,
2013-02-12 19:56:00,29.3,23.0,29.70,NE,51,1.0,6.0,77,0.00,,,0.00,Wunderground v.1.15,2013-02-13 00:56:00,
2013-02-12 19:57:00,29.3,23.0,29.70,NE,51,2.0,6.0,77,0.00,,,0.00,Wunderground v.1.15,2013-02-13 00:57:00,
2013-02-12 19:59:00,29.3,23.0,29.70,East,79,1.0,6.0,77,0.00,,,0.00,Wunderground v.1.15,2013-02-13 00:59:00,
2013-02-12 20:00:00,29.3,23.0,29.70,ENE,68,2.0,3.0,77,0.00,,,0.00,Wunderground v.1.15,2013-02-13 01:00:00,
2013-02-12 20:01:00,29.3,23.0,29.70,NNE,13,1.0,3.0,77,0.00,,,0.00,Wunderground v.1.15,2013-02-13 01:01:00,
2013-02-12 20:02:00,29.3,23.0,29.70,NNE,16,1.0,3.0,77,0.00,,,0.00,Wunderground v.1.15,2013-02-13 01:02:00,
2013-02-12 20:04:00,29.3,23.0,29.72,NE,44,2.0,3.0,77,0.00,,,0.00,Wunderground v.1.15,2013-02-13 01:04:00,
2013-02-12 20:05:00,29.3,23.0,29.72,NE,47,2.0,3.0,77,0.00,,,0.00,Wunderground v.1.15,2013-02-13 01:05:00,
2013-02-12 20:08:00,29.3,23.0,29.72,ENE,71,5.0,7.0,77,0.00,,,0.00,Wunderground v.1.15,2013-02-13 01:08:00,
2013-02-12 20:09:00,29.3,23.0,29.72,ESE,102,5.0,7.0,77,0.00,,,0.00,Wunderground v.1.15,2013-02-13 01:09:00,
2013-02-12 20:11:00,29.3,22.7,29.72,South,174,1.0,7.0,76,0.00,,,0.00,Wunderground v.1.15,2013-02-13 01:11:00,
2013-02-12 20:13:00,29.3,22.7,29.72,ENE,71,0.0,7.0,76,0.00,,,0.00,Wunderground v.1.15,2013-02-13 01:13:00,
2013-02-12 20:14:00,29.3,22.7,29.72,NNE,24,5.0,8.0,76,0.00,,,0.00,Wunderground v.1.15,2013-02-13 01:14:00,
2013-02-12 20:16:00,29.3,22.7,29.72,NE,37,5.0,11.0,76,0.00,,,0.00,Wunderground v.1.15,2013-02-13 01:16:00,
2013-02-12 20:19:00,29.3,22.7,29.72,NE,48,2.0,11.0,76,0.00,,,0.00,Wunderground v.1.15,2013-02-13 01:19:00,
2013-02-12 20:20:00,29.3,22.7,29.72,SSE,164,2.0,4.0,76,0.00,,,0.00,Wunderground v.1.15,2013-02-13 01:20:00,
2013-02-12 20:21:00,29.3,23.0,29.72,ENE,72,2.0,4.0,77,0.00,,,0.00,Wunderground v.1.15,2013-02-13 01:21:00,
2013-02-12 20:22:00,29.1,22.8,29.72,ENE,64,3.0,7.0,77,0.00,,,0.00,Wunderground v.1.15,2013-02-13 01:22:00,
2013-02-12 20:24:00,29.1,22.8,29.72,ENE,64,5.0,7.0,77,0.00,,,0.00,Wunderground v.1.15,2013-02-13 01:24:00,
2013-02-12 20:25:00,29.1,22.8,29.72,East,82,3.0,7.0,77,0.00,,,0.00,Wunderground v.1.15,2013-02-13 01:25:00,
2013-02-12 20:27:00,29.1,22.8,29.72,ENE,75,4.0,7.0,77,0.00,,,0.00,Wunderground v.1.15,2013-02-13 01:27:00,
2013-02-12 20:29:00,29.1,22.8,29.72,NE,54,3.0,7.0,77,0.00,,,0.00,Wunderground v.1.15,2013-02-13 01:29:00,
2013-02-12 20:30:00,29.1,22.8,29.72,East,99,2.0,3.0,77,0.00,,,0.00,Wunderground v.1.15,2013-02-13 01:30:00,
2013-02-12 20:35:00,29.0,22.4,29.73,NE,54,4.0,10.0,76,0.00,,,0.00,Wunderground v.1.15,2013-02-13 01:35:00,
2013-02-12 20:39:00,29.0,22.7,29.73,ENE,75,2.0,10.0,77,0.00,,,0.00,Wunderground v.1.15,2013-02-13 01:39:00,
2013-02-12 20:40:00,29.0,22.7,29.73,ENE,75,1.0,4.0,77,0.00,,,0.00,Wunderground v.1.15,2013-02-13 01:40:00,
2013-02-12 20:44:00,28.8,22.5,29.73,ENE,78,1.0,6.0,77,0.00,,,0.00,Wunderground v.1.15,2013-02-13 01:44:00,
2013-02-12 20:45:00,28.8,22.5,29.73,South,169,6.0,8.0,77,0.00,,,0.00,Wunderground v.1.15,2013-02-13 01:45:00,
2013-02-12 20:46:00,28.8,22.5,29.73,NNW,339,3.0,8.0,77,0.00,,,0.00,Wunderground v.1.15,2013-02-13 01:46:00,
2013-02-12 20:50:00,28.8,22.2,29.73,ENE,72,1.0,3.0,76,0.00,,,0.00,Wunderground v.1.15,2013-02-13 01:50:00,
2013-02-12 20:51:00,28.8,22.5,29.73,South,175,3.0,3.0,77,0.00,,,0.00,Wunderground v.1.15,2013-02-13 01:51:00,
2013-02-12 20:55:00,28.7,22.4,29.73,NE,48,4.0,6.0,77,0.00,,,0.00,Wunderground v.1.15,2013-02-13 01:55:00,
2013-02-12 20:56:00,28.7,22.1,29.73,ENE,58,3.0,6.0,76,0.00,,,0.00,Wunderground v.1.15,2013-02-13 01:56:00,
2013-02-12 20:58:00,28.7,22.4,29.73,South,186,3.0,6.0,77,0.00,,,0.00,Wunderground v.1.15,2013-02-13 01:58:00,
2013-02-12 21:01:00,28.7,22.7,29.73,SSE,150,5.0,7.0,78,0.00,,,0.00,Wunderground v.1.15,2013-02-13 02:01:00,
2013-02-12 21:03:00,28.7,22.1,29.74,ENE,72,5.0,7.0,76,0.00,,,0.00,Wunderground v.1.15,2013-02-13 02:03:00,
2013-02-12 21:06:00,28.5,22.2,29.74,ENE,72,2.0,11.0,77,0.00,,,0.00,Wunderground v.1.15,2013-02-13 02:06:00,
2013-02-12 21:07:00,28.5,22.2,29.74,ENE,61,6.0,11.0,77,0.00,,,0.00,Wunderground v.1.15,2013-02-13 02:07:00,
2013-02-12 21:08:00,28.5,22.2,29.74,NNE,20,8.0,11.0,77,0.00,,,0.00,Wunderground v.1.15,2013-02-13 02:08:00,
2013-02-12 21:11:00,28.5,22.2,29.74,ENE,78,3.0,5.0,77,0.00,,,0.00,Wunderground v.1.15,2013-02-13 02:11:00,
2013-02-12 21:12:00,28.5,22.2,29.74,ENE,72,2.0,5.0,77,0.00,,,0.00,Wunderground v.1.15,2013-02-13 02:12:00,
2013-02-12 21:13:00,28.5,22.2,29.74,ENE,72,6.0,6.0,77,0.00,,,0.00,Wunderground v.1.15,2013-02-13 02:13:00,
2013-02-12 21:17:00,28.4,22.4,29.74,SE,134,0.0,6.0,78,0.00,,,0.00,Wunderground v.1.15,2013-02-13 02:17:00,
2013-02-12 21:18:00,28.4,22.4,29.74,ENE,75,2.0,6.0,78,0.00,,,0.00,Wunderground v.1.15,2013-02-13 02:18:00,
2013-02-12 21:23:00,28.2,22.2,29.74,ENE,62,3.0,3.0,78,0.00,,,0.00,Wunderground v.1.15,2013-02-13 02:23:00,
2013-02-12 21:24:00,28.2,22.5,29.74,NE,51,3.0,3.0,79,0.00,,,0.00,Wunderground v.1.15,2013-02-13 02:24:00,
2013-02-12 21:25:00,28.2,22.5,29.74,NNE,20,1.0,4.0,79,0.00,,,0.00,Wunderground v.1.15,2013-02-13 02:25:00,
2013-02-12 21:28:00,28.2,22.5,29.74,ESE,106,2.0,4.0,79,0.00,,,0.00,Wunderground v.1.15,2013-02-13 02:28:00,
2013-02-12 21:29:00,28.2,22.5,29.74,ENE,72,0.0,4.0,79,0.00,,,0.00,Wunderground v.1.15,2013-02-13 02:29:00,
2013-02-12 21:31:00,28.1,22.1,29.74,NE,54,0.0,3.0,78,0.00,,,0.00,Wunderground v.1.15,2013-02-13 02:31:00,
2013-02-12 21:34:00,28.1,22.4,29.74,NE,55,1.0,6.0,79,0.00,,,0.00,Wunderground v.1.15,2013-02-13 02:34:00,
2013-02-12 21:35:00,28.1,22.4,29.74,SSW,203,1.0,6.0,79,0.00,,,0.00,Wunderground v.1.15,2013-02-13 02:35:00,
2013-02-12 21:36:00,28.1,22.4,29.74,ENE,58,2.0,6.0,79,0.00,,,0.00,Wunderground v.1.15,2013-02-13 02:36:00,
2013-02-12 21:39:00,28.1,22.4,29.74,ENE,75,3.0,6.0,79,0.00,,,0.00,Wunderground v.1.15,2013-02-13 02:39:00,
2013-02-12 21:40:00,27.9,22.5,29.74,SW,216,1.0,10.0,80,0.00,,,0.00,Wunderground v.1.15,2013-02-13 02:40:00,
2013-02-12 21:41:00,27.9,22.2,29.74,South,175,3.0,10.0,79,0.00,,,0.00,Wunderground v.1.15,2013-02-13 02:41:00,
2013-02-12 21:42:00,27.9,22.2,29.74,NE,40,0.0,10.0,79,0.00,,,0.00,Wunderground v.1.15,2013-02-13 02:42:00,
2013-02-12 21:45:00,27.9,22.5,29.74,SSE,168,2.0,10.0,80,0.00,,,0.00,Wunderground v.1.15,2013-02-13 02:45:00,
2013-02-12 21:46:00,27.9,22.8,29.74,SSE,168,1.0,10.0,81,0.00,,,0.00,Wunderground v.1.15,2013-02-13 02:46:00,
2013-02-12 21:47:00,27.9,22.8,29.74,SSE,168,0.0,10.0,81,0.00,,,0.00,Wunderground v.1.15,2013-02-13 02:47:00,
2013-02-12 21:50:00,27.8,22.7,29.74,SSE,168,0.0,2.0,81,0.00,,,0.00,Wunderground v.1.15,2013-02-13 02:50:00,
2013-02-12 21:51:00,27.8,22.7,29.74,SSE,168,1.0,2.0,81,0.00,,,0.00,Wunderground v.1.15,2013-02-13 02:51:00,
2013-02-12 21:53:00,27.8,23.0,29.74,ENE,65,3.0,3.0,82,0.00,,,0.00,Wunderground v.1.15,2013-02-13 02:53:00,
2013-02-12 21:56:00,27.6,22.8,29.74,SSE,164,2.0,3.0,82,0.00,,,0.00,Wunderground v.1.15,2013-02-13 02:56:00,
2013-02-12 21:58:00,27.6,23.1,29.74,South,172,1.0,3.0,83,0.00,,,0.00,Wunderground v.1.15,2013-02-13 02:58:00,
2013-02-12 21:59:00,27.6,23.1,29.74,East,96,0.0,3.0,83,0.00,,,0.00,Wunderground v.1.15,2013-02-13 02:59:00,
2013-02-12 22:02:00,27.6,23.4,29.73,NE,48,2.0,6.0,84,0.00,,,0.00,Wunderground v.1.15,2013-02-13 03:02:00,
2013-02-12 22:03:00,27.5,23.3,29.73,NE,47,6.0,6.0,84,0.00,,,0.00,Wunderground v.1.15,2013-02-13 03:03:00,
2013-02-12 22:04:00,27.5,23.0,29.73,ENE,72,6.0,6.0,83,0.00,,,0.00,Wunderground v.1.15,2013-02-13 03:04:00,
2013-02-12 22:08:00,27.5,23.3,29.73,SSE,147,0.0,6.0,84,0.00,,,0.00,Wunderground v.1.15,2013-02-13 03:08:00,
2013-02-12 22:09:00,27.5,23.3,29.73,SSE,147,0.0,6.0,84,0.00,,,0.00,Wunderground v.1.15,2013-02-13 03:09:00,
2013-02-12 22:10:00,27.3,23.1,29.73,SSE,147,0.0,1.0,84,0.00,,,0.00,Wunderground v.1.15,2013-02-13 03:10:00,
2013-02-12 22:13:00,27.3,22.8,29.73,East,82,1.0,5.0,83,0.00,,,0.00,Wunderground v.1.15,2013-02-13 03:13:00,
2013-02-12 22:14:00,27.3,22.8,29.73,ENE,58,3.0,5.0,83,0.00,,,0.00,Wunderground v.1.15,2013-02-13 03:14:00,
2013-02-12 22:15:00,27.3,22.8,29.73,South,188,1.0,5.0,83,0.00,,,0.00,Wunderground v.1.15,2013-02-13 03:15:00,
2013-02-12 22:19:00,27.2,22.4,29.73,ENE,68,1.0,5.0,82,0.00,,,0.00,Wunderground v.1.15,2013-02-13 03:19:00,
2013-02-12 22:20:00,27.2,22.4,29.73,ENE,68,3.0,3.0,82,0.00,,,0.00,Wunderground v.1.15,2013-02-13 03:20:00,
2013-02-12 22:21:00,27.2,22.7,29.73,ENE,68,2.0,3.0,83,0.00,,,0.00,Wunderground v.1.15,2013-02-13 03:21:00,
2013-02-12 22:24:00,27.2,22.7,29.73,ENE,68,1.0,3.0,83,0.00,,,0.00,Wunderground v.1.15,2013-02-13 03:24:00,
2013-02-12 22:25:00,27.2,22.7,29.73,ENE,64,1.0,5.0,83,0.00,,,0.00,Wunderground v.1.15,2013-02-13 03:25:00,
2013-02-12 22:27:00,27.2,22.7,29.73,ENE,64,2.0,5.0,83,0.00,,,0.00,Wunderground v.1.15,2013-02-13 03:27:00,
2013-02-12 22:29:00,27.2,22.7,29.73,SSE,157,1.0,5.0,83,0.00,,,0.00,Wunderground v.1.15,2013-02-13 03:29:00,
2013-02-12 22:30:00,27.2,22.7,29.73,ENE,62,3.0,5.0,83,0.00,,,0.00,Wunderground v.1.15,2013-02-13 03:30:00,
2013-02-12 22:31:00,27.2,22.7,29.73,ENE,62,1.0,5.0,83,0.00,,,0.00,Wunderground v.1.15,2013-02-13 03:31:00,
2013-02-12 22:32:00,27.2,22.7,29.73,ENE,75,3.0,5.0,83,0.00,,,0.00,Wunderground v.1.15,2013-02-13 03:32:00,
2013-02-12 22:35:00,27.2,22.7,29.72,ENE,71,2.0,6.0,83,0.00,,,0.00,Wunderground v.1.15,2013-02-13 03:35:00,
2013-02-12 22:36:00,27.2,22.7,29.72,ENE,71,3.0,6.0,83,0.00,,,0.00,Wunderground v.1.15,2013-02-13 03:36:00,
2013-02-12 22:37:00,27.2,22.7,29.72,ENE,71,4.0,6.0,83,0.00,,,0.00,Wunderground v.1.15,2013-02-13 03:37:00,
2013-02-12 22:40:00,27.0,22.2,29.72,ENE,75,3.0,4.0,82,0.00,,,0.00,Wunderground v.1.15,2013-02-13 03:40:00,
2013-02-12 22:42:00,27.2,22.7,29.72,NE,55,3.0,4.0,83,0.00,,,0.00,Wunderground v.1.15,2013-02-13 03:42:00,
2013-02-12 22:46:00,27.0,22.2,29.72,ENE,69,1.0,6.0,82,0.00,,,0.00,Wunderground v.1.15,2013-02-13 03:46:00,
2013-02-12 22:47:00,27.0,22.2,29.72,North,350,2.0,6.0,82,0.00,,,0.00,Wunderground v.1.15,2013-02-13 03:47:00,
2013-02-12 22:48:00,27.0,22.5,29.72,NE,41,2.0,6.0,83,0.00,,,0.00,Wunderground v.1.15,2013-02-13 03:48:00,
2013-02-12 22:51:00,27.0,22.2,29.72,ENE,71,2.0,6.0,82,0.00,,,0.00,Wunderground v.1.15,2013-02-13 03:51:00,
2013-02-12 22:53:00,27.0,22.5,29.72,ENE,71,0.0,6.0,83,0.00,,,0.00,Wunderground v.1.15,2013-02-13 03:53:00,
2013-02-12 22:54:00,27.0,22.5,29.72,ENE,71,0.0,6.0,83,0.00,,,0.00,Wunderground v.1.15,2013-02-13 03:54:00,
2013-02-12 22:58:00,26.9,22.4,29.72,ENE,72,0.0,6.0,83,0.00,,,0.00,Wunderground v.1.15,2013-02-13 03:58:00,
2013-02-12 22:59:00,26.9,22.4,29.72,ENE,72,2.0,6.0,83,0.00,,,0.00,Wunderground v.1.15,2013-02-13 03:59:00,
2013-02-12 23:03:00,26.9,22.1,29.72,South,191,0.0,7.0,82,0.00,,,0.00,Wunderground v.1.15,2013-02-13 04:03:00,
2013-02-12 23:04:00,26.9,22.4,29.72,South,191,2.0,7.0,83,0.00,,,0.00,Wunderground v.1.15,2013-02-13 04:04:00,
2013-02-12 23:05:00,26.9,22.4,29.72,South,191,0.0,7.0,83,0.00,,,0.00,Wunderground v.1.15,2013-02-13 04:05:00,
2013-02-12 23:06:00,26.9,22.1,29.72,South,191,2.0,7.0,82,0.00,,,0.00,Wunderground v.1.15,2013-02-13 04:06:00,
2013-02-12 23:09:00,26.9,22.4,29.72,East,85,0.0,7.0,83,0.00,,,0.00,Wunderground v.1.15,2013-02-13 04:09:00,
2013-02-12 23:10:00,26.9,22.4,29.72,East,86,0.0,2.0,83,0.00,,,0.00,Wunderground v.1.15,2013-02-13 04:10:00,
2013-02-12 23:11:00,26.9,22.4,29.72,North,0,1.0,2.0,83,0.00,,,0.00,Wunderground v.1.15,2013-02-13 04:11:00,
2013-02-12 23:14:00,26.9,22.1,29.72,SSE,147,3.0,5.0,82,0.00,,,0.00,Wunderground v.1.15,2013-02-13 04:14:00,
2013-02-12 23:16:00,26.9,22.1,29.72,East,96,1.0,7.0,82,0.00,,,0.00,Wunderground v.1.15,2013-02-13 04:16:00,
2013-02-12 23:17:00,26.9,22.1,29.72,East,89,3.0,8.0,82,0.00,,,0.00,Wunderground v.1.15,2013-02-13 04:17:00,
2013-02-12 23:20:00,27.0,21.9,29.72,East,89,0.0,2.0,81,0.00,,,0.00,Wunderground v.1.15,2013-02-13 04:20:00,
2013-02-12 23:21:00,27.0,21.9,29.72,SSE,158,0.0,2.0,81,0.00,,,0.00,Wunderground v.1.15,2013-02-13 04:21:00,
2013-02-12 23:22:00,27.0,22.2,29.72,SSE,158,0.0,2.0,82,0.00,,,0.00,Wunderground v.1.15,2013-02-13 04:22:00,
2013-02-12 23:23:00,27.0,22.2,29.72,SSE,158,0.0,2.0,82,0.00,,,0.00,Wunderground v.1.15,2013-02-13 04:23:00,
2013-02-12 23:25:00,27.0,22.2,29.72,SSE,158,0.0,2.0,82,0.00,,,0.00,Wunderground v.1.15,2013-02-13 04:25:00,
2013-02-12 23:27:00,26.9,22.1,29.72,SSE,158,1.0,2.0,82,0.00,,,0.00,Wunderground v.1.15,2013-02-13 04:27:00,
2013-02-12 23:28:00,26.9,22.1,29.72,SSE,158,0.0,2.0,82,0.00,,,0.00,Wunderground v.1.15,2013-02-13 04:28:00,
2013-02-12 23:29:00,26.9,22.1,29.72,SSE,148,2.0,2.0,82,0.00,,,0.00,Wunderground v.1.15,2013-02-13 04:29:00,
2013-02-12 23:31:00,26.9,22.1,29.72,NE,37,2.0,2.0,82,0.00,,,0.00,Wunderground v.1.15,2013-02-13 04:31:00,
2013-02-12 23:32:00,26.9,22.1,29.72,ENE,75,3.0,5.0,82,0.00,,,0.00,Wunderground v.1.15,2013-02-13 04:32:00,
2013-02-12 23:33:00,26.9,22.1,29.72,SSE,168,1.0,5.0,82,0.00,,,0.00,Wunderground v.1.15,2013-02-13 04:33:00,
2013-02-12 23:34:00,26.9,22.1,29.72,South,175,2.0,5.0,82,0.00,,,0.00,Wunderground v.1.15,2013-02-13 04:34:00,
2013-02-12 23:36:00,26.9,22.4,29.72,South,175,0.0,5.0,83,0.00,,,0.00,Wunderground v.1.15,2013-02-13 04:36:00,
2013-02-12 23:39:00,26.9,22.1,29.72,NNE,13,2.0,5.0,82,0.00,,,0.00,Wunderground v.1.15,2013-02-13 04:39:00,
2013-02-12 23:41:00,26.9,22.1,29.72,NNE,13,0.0,2.0,82,0.00,,,0.00,Wunderground v.1.15,2013-02-13 04:41:00,
2013-02-12 23:44:00,26.9,22.1,29.72,NE,47,1.0,6.0,82,0.00,,,0.00,Wunderground v.1.15,2013-02-13 04:44:00,
2013-02-12 23:45:00,26.9,22.1,29.72,NE,37,3.0,7.0,82,0.00,,,0.00,Wunderground v.1.15,2013-02-13 04:45:00,
2013-02-12 23:47:00,26.9,21.8,29.72,ENE,61,4.0,7.0,81,0.00,,,0.00,Wunderground v.1.15,2013-02-13 04:47:00,
2013-02-12 23:49:00,27.0,21.9,29.72,ENE,61,0.0,7.0,81,0.00,,,0.00,Wunderground v.1.15,2013-02-13 04:49:00,
2013-02-12 23:50:00,27.0,21.9,29.72,ENE,61,0.0,2.0,81,0.00,,,0.00,Wunderground v.1.15,2013-02-13 04:50:00,
2013-02-12 23:51:00,27.0,22.2,29.72,ENE,61,0.0,2.0,82,0.00,,,0.00,Wunderground v.1.15,2013-02-13 04:51:00,
2013-02-12 23:53:00,27.0,22.2,29.72,ENE,61,0.0,2.0,82,0.00,,,0.00,Wunderground v.1.15,2013-02-13 04:53:00,
2013-02-12 23:55:00,27.0,22.2,29.72,ENE,61,0.0,2.0,82,0.00,,,0.00,Wunderground v.1.15,2013-02-13 04:55:00,
2013-02-12 23:57:00,26.9,22.1,29.72,ENE,61,0.0,2.0,82,0.00,,,0.00,Wunderground v.1.15,2013-02-13 04:57:00,
2013-02-12 23:58:00,26.9,22.1,29.72,SE,126,1.0,6.0,82,0.00,,,0.00,Wunderground v.1.15,2013-02-13 04:58:00,